Wetterdaten: Montag, 20.03.2017
Datum Zeit Temp. Aussen Temp. o. S. +5cm Feuchte Auss BlattFeu 1 Luftdruck Regen Sonnenschein Regendauer Solar Windben Empfang
20.03.2017 00:00 10,1 C 10,0 C 8,3 C 91 % 3 lf 1008,4 hPa 0,0 l/m 0 min 0 min 0 W/m 31,4 km/h (5 Bft) 93,62 %
20.03.2017 00:02 10,1 C 10,0 C 8,3 C 91 % 3 lf 1008,4 hPa 0,0 l/m 0 min 0 min 0 W/m 27,2 km/h (4 Bft) 92,31 %
20.03.2017 00:05 10,1 C 10,0 C 8,3 C 91 % 2 lf 1008,4 hPa 0,0 l/m 0 min 0 min 0 W/m 20,9 km/h (4 Bft) 94,29 %
20.03.2017 00:06 10,1 C 10,0 C 8,3 C 91 % 1 lf 1008,4 hPa 0,0 l/m 0 min 0 min 0 W/m 16,7 km/h (3 Bft) 91,67 %
20.03.2017 00:08 10,1 C 10,0 C 8,3 C 91 % 3 lf 1008,4 hPa 0,0 l/m 0 min 0 min 0 W/m 27,2 km/h (4 Bft) 95,74 %
20.03.2017 00:10 10,1 C 10,0 C 8,3 C 91 % 3 lf 1008,4 hPa 0,0 l/m 0 min 0 min 0 W/m 18,8 km/h (3 Bft) 95,74 %
20.03.2017 00:12 10,1 C 10,0 C 8,3 C 92 % 3 lf 1008,4 hPa 0,0 l/m 0 min 0 min 0 W/m 23,0 km/h (4 Bft) 95,65 %
20.03.2017 00:14 10,0 C 10,0 C 8,3 C 92 % 1 lf 1008,5 hPa 0,0 l/m 0 min 0 min 0 W/m 27,2 km/h (4 Bft) 95,74 %
20.03.2017 00:16 10,0 C 10,0 C 8,3 C 92 % 1 lf 1008,4 hPa 0,0 l/m 0 min 0 min 0 W/m 16,7 km/h (3 Bft) 91,49 %
20.03.2017 00:18 10,0 C 10,0 C 8,3 C 92 % 0 lf 1008,4 hPa 0,0 l/m 0 min 0 min 0 W/m 23,0 km/h (4 Bft) 95,74 %
20.03.2017 00:20 10,0 C 10,0 C 8,3 C 92 % 0 lf 1008,4 hPa 0,0 l/m 0 min 0 min 0 W/m 25,1 km/h (4 Bft) 93,62 %
20.03.2017 00:22 10,0 C 10,0 C 8,3 C 92 % 3 lf 1008,4 hPa 0,0 l/m 0 min 0 min 0 W/m 25,1 km/h (4 Bft) 95,74 %
20.03.2017 00:24 9,9 C 10,0 C 8,3 C 92 % 2 lf 1008,4 hPa 0,0 l/m 0 min 0 min 0 W/m 23,0 km/h (4 Bft) 97,83 %
20.03.2017 00:26 9,9 C 10,0 C 8,3 C 92 % 1 lf 1008,5 hPa 0,0 l/m 0 min 0 min 0 W/m 20,9 km/h (4 Bft) 93,62 %
20.03.2017 00:28 9,9 C 10,0 C 8,3 C 92 % 1 lf 1008,5 hPa 0,0 l/m 0 min 0 min 0 W/m 18,8 km/h (3 Bft) 97,87 %
20.03.2017 00:30 9,9 C 10,0 C 8,3 C 92 % 2 lf 1008,5 hPa 0,0 l/m 0 min 0 min 0 W/m 16,7 km/h (3 Bft) 95,74 %
20.03.2017 00:32 9,9 C 10,0 C 8,3 C 92 % 1 lf 1008,5 hPa 0,0 l/m 0 min 0 min 0 W/m 23,0 km/h (4 Bft) 95,74 %
20.03.2017 00:34 9,9 C 10,0 C 8,3 C 92 % 1 lf 1008,5 hPa 0,0 l/m 0 min 0 min 0 W/m 18,8 km/h (3 Bft) 93,62 %
20.03.2017 00:36 9,9 C 10,0 C 8,3 C 92 % 1 lf 1008,5 hPa 0,0 l/m 0 min 0 min 0 W/m 23,0 km/h (4 Bft) 97,62 %
20.03.2017 00:38 9,9 C 10,0 C 8,3 C 92 % 1 lf 1008,5 hPa 0,0 l/m 0 min 0 min 0 W/m 18,8 km/h (3 Bft) 97,87 %
20.03.2017 00:40 9,9 C 10,0 C 8,3 C 92 % 5 lf 1008,5 hPa 0,0 l/m 0 min 0 min 0 W/m 23,0 km/h (4 Bft) 95,74 %
20.03.2017 00:42 9,9 C 10,0 C 8,3 C 92 % 11 lf 1008,5 hPa 0,0 l/m 0 min 0 min 0 W/m 23,0 km/h (4 Bft) 97,92 %
20.03.2017 00:44 9,9 C 9,4 C 7,8 C 92 % 11 lf 1008,5 hPa 0,0 l/m 0 min 0 min 0 W/m 25,1 km/h (4 Bft) 93,62 %
20.03.2017 00:46 9,8 C 9,4 C 7,8 C 92 % 13 lf 1008,5 hPa 0,0 l/m 0 min 0 min 0 W/m 23,0 km/h (4 Bft) 95,65 %
20.03.2017 00:48 9,8 C 9,4 C 7,8 C 92 % 14 lf 1008,4 hPa 0,0 l/m 0 min 0 min 0 W/m 23,0 km/h (4 Bft) 95,74 %
20.03.2017 00:50 9,8 C 9,4 C 7,8 C 93 % 14 lf 1008,5 hPa 0,0 l/m 0 min 0 min 0 W/m 18,8 km/h (3 Bft) 98,00 %
20.03.2017 00:52 9,8 C 9,4 C 7,8 C 93 % 14 lf 1008,5 hPa 0,0 l/m 0 min 0 min 0 W/m 18,8 km/h (3 Bft) 97,87 %
20.03.2017 00:54 9,8 C 9,4 C 7,8 C 93 % 14 lf 1008,5 hPa 0,0 l/m 0 min 0 min 0 W/m 18,8 km/h (3 Bft) 95,74 %
20.03.2017 00:56 9,7 C 9,4 C 7,8 C 93 % 14 lf 1008,5 hPa 0,0 l/m 0 min 0 min 0 W/m 27,2 km/h (4 Bft) 97,87 %
20.03.2017 00:58 9,7 C 9,4 C 7,8 C 93 % 13 lf 1008,5 hPa 0,0 l/m 0 min 0 min 0 W/m 23,0 km/h (4 Bft) 100,00 %
20.03.2017 01:00 9,7 C 9,4 C 7,8 C 93 % 13 lf 1008,5 hPa 0,0 l/m 0 min 0 min 0 W/m 27,2 km/h (4 Bft) 100,00 %
20.03.2017 01:02 9,7 C 9,4 C 7,8 C 93 % 13 lf 1008,5 hPa 0,0 l/m 0 min 0 min 0 W/m 25,1 km/h (4 Bft) 97,67 %
20.03.2017 01:04 9,7 C 9,4 C 7,8 C 93 % 11 lf 1008,5 hPa 0,0 l/m 0 min 0 min 0 W/m 20,9 km/h (4 Bft) 97,87 %
20.03.2017 01:06 9,7 C 9,4 C 7,8 C 93 % 9 lf 1008,5 hPa 0,0 l/m 0 min 0 min 0 W/m 18,8 km/h (3 Bft) 98,00 %
20.03.2017 01:08 9,7 C 9,4 C 7,8 C 93 % 6 lf 1008,5 hPa 0,0 l/m 0 min 0 min 0 W/m 27,2 km/h (4 Bft) 100,00 %
20.03.2017 01:10 9,6 C 9,4 C 7,8 C 93 % 4 lf 1008,4 hPa 0,0 l/m 0 min 0 min 0 W/m 16,7 km/h (3 Bft) 100,00 %
20.03.2017 01:12 9,6 C 9,4 C 7,8 C 93 % 3 lf 1008,5 hPa 0,0 l/m 0 min 0 min 0 W/m 18,8 km/h (3 Bft) 97,92 %
20.03.2017 01:14 9,6 C 9,4 C 7,8 C 93 % 2 lf 1008,4 hPa 0,0 l/m 0 min 0 min 0 W/m 16,7 km/h (3 Bft) 93,62 %
20.03.2017 01:16 9,6 C 9,4 C 7,8 C 93 % 1 lf 1008,4 hPa 0,0 l/m 0 min 0 min 0 W/m 16,7 km/h (3 Bft) 97,87 %
20.03.2017 01:18 9,6 C 9,4 C 7,8 C 93 % 1 lf 1008,3 hPa 0,0 l/m 0 min 0 min 0 W/m 16,7 km/h (3 Bft) 95,74 %
20.03.2017 01:20 9,6 C 9,4 C 7,8 C 93 % 1 lf 1008,4 hPa 0,0 l/m 0 min 0 min 0 W/m 23,0 km/h (4 Bft) 97,87 %
20.03.2017 01:22 9,6 C 9,4 C 7,8 C 94 % 1 lf 1008,3 hPa 0,0 l/m 0 min 0 min 0 W/m 18,8 km/h (3 Bft) 97,83 %
20.03.2017 01:24 9,6 C 9,4 C 7,8 C 94 % 0 lf 1008,3 hPa 0,0 l/m 0 min 0 min 0 W/m 18,8 km/h (3 Bft) 97,87 %
20.03.2017 01:26 9,6 C 9,4 C 7,8 C 94 % 0 lf 1008,3 hPa 0,0 l/m 0 min 0 min 0 W/m 18,8 km/h (3 Bft) 97,87 %
20.03.2017 01:28 9,6 C 9,4 C 7,8 C 94 % 0 lf 1008,4 hPa 0,0 l/m 0 min 0 min 0 W/m 20,9 km/h (4 Bft) 93,62 %
20.03.2017 01:30 9,6 C 9,4 C 7,8 C 94 % 0 lf 1008,3 hPa 0,0 l/m 0 min 0 min 0 W/m 18,8 km/h (3 Bft) 97,87 %
20.03.2017 01:32 9,6 C 9,4 C 7,8 C 94 % 0 lf 1008,3 hPa 0,0 l/m 0 min 0 min 0 W/m 18,8 km/h (3 Bft) 97,92 %
20.03.2017 01:34 9,6 C 10,0 C 7,8 C 94 % 0 lf 1008,3 hPa 0,0 l/m 0 min 0 min 0 W/m 23,0 km/h (4 Bft) 95,74 %
20.03.2017 01:36 9,5 C 10,0 C 7,8 C 94 % 3 lf 1008,4 hPa 0,0 l/m 0 min 0 min 0 W/m 18,8 km/h (3 Bft) 97,92 %
20.03.2017 01:38 9,5 C 10,0 C 7,8 C 94 % 2 lf 1008,4 hPa 0,0 l/m 0 min 0 min 0 W/m 16,7 km/h (3 Bft) 97,87 %
20.03.2017 01:40 9,6 C 9,4 C 7,8 C 94 % 1 lf 1008,4 hPa 0,0 l/m 0 min 0 min 0 W/m 20,9 km/h (4 Bft) 97,87 %
20.03.2017 01:42 9,6 C 9,4 C 7,8 C 94 % 1 lf 1008,4 hPa 0,0 l/m 0 min 0 min 0 W/m 18,8 km/h (3 Bft) 93,62 %
20.03.2017 01:44 9,6 C 9,4 C 7,8 C 94 % 1 lf 1008,4 hPa 0,0 l/m 0 min 0 min 0 W/m 23,0 km/h (4 Bft) 97,83 %
20.03.2017 01:46 9,6 C 9,4 C 7,8 C 94 % 1 lf 1008,4 hPa 0,0 l/m 0 min 0 min 0 W/m 25,1 km/h (4 Bft) 100,00 %
20.03.2017 01:48 9,6 C 9,4 C 7,8 C 94 % 0 lf 1008,4 hPa 0,0 l/m 0 min 0 min 0 W/m 16,7 km/h (3 Bft) 100,00 %
20.03.2017 01:50 9,6 C 9,4 C 7,8 C 94 % 0 lf 1008,3 hPa 0,0 l/m 0 min 0 min 0 W/m 23,0 km/h (4 Bft) 97,87 %
20.03.2017 01:52 9,6 C 10,0 C 8,3 C 94 % 0 lf 1008,3 hPa 0,0 l/m 0 min 0 min 0 W/m 14,6 km/h (3 Bft) 100,00 %
20.03.2017 01:54 9,6 C 10,0 C 8,3 C 94 % 0 lf 1008,3 hPa 0,0 l/m 0 min 0 min 0 W/m 14,6 km/h (3 Bft) 97,87 %
20.03.2017 01:56 9,6 C 10,0 C 8,3 C 94 % 0 lf 1008,2 hPa 0,0 l/m 0 min 0 min 0 W/m 20,9 km/h (4 Bft) 100,00 %
20.03.2017 01:58 9,6 C 10,0 C 8,3 C 94 % 0 lf 1008,2 hPa 0,0 l/m 0 min 0 min 0 W/m 23,0 km/h (4 Bft) 97,87 %
20.03.2017 02:00 9,6 C 10,0 C 8,3 C 93 % 0 lf 1008,3 hPa 0,0 l/m 0 min 0 min 0 W/m 25,1 km/h (4 Bft) 97,87 %
20.03.2017 02:02 9,6 C 10,0 C 8,3 C 93 % 2 lf 1008,2 hPa 0,0 l/m 0 min 0 min 0 W/m 27,2 km/h (4 Bft) 97,14 %
20.03.2017 02:04 9,6 C 10,0 C 8,3 C 93 % 0 lf 1008,2 hPa 0,0 l/m 0 min 0 min 0 W/m 27,2 km/h (4 Bft) 97,87 %
20.03.2017 02:06 9,6 C 10,0 C 8,3 C 93 % 0 lf 1008,2 hPa 0,0 l/m 0 min 0 min 0 W/m 25,1 km/h (4 Bft) 93,62 %
20.03.2017 02:08 9,7 C 10,0 C 8,3 C 93 % 0 lf 1008,2 hPa 0,0 l/m 0 min 0 min 0 W/m 16,7 km/h (3 Bft) 97,87 %
20.03.2017 02:10 9,7 C 10,0 C 8,3 C 93 % 0 lf 1008,2 hPa 0,0 l/m 0 min 0 min 0 W/m 23,0 km/h (4 Bft) 93,62 %
20.03.2017 02:12 9,7 C 10,0 C 8,3 C 93 % 0 lf 1008,2 hPa 0,0 l/m 0 min 0 min 0 W/m 29,3 km/h (5 Bft) 98,11 %
20.03.2017 02:14 9,7 C 10,0 C 8,3 C 93 % 0 lf 1008,2 hPa 0,0 l/m 0 min 0 min 0 W/m 27,2 km/h (4 Bft) 93,62 %
20.03.2017 02:16 9,7 C 10,0 C 8,3 C 93 % 0 lf 1008,2 hPa 0,0 l/m 0 min 0 min 0 W/m 29,3 km/h (5 Bft) 93,62 %
20.03.2017 02:18 9,7 C 10,0 C 8,3 C 92 % 0 lf 1008,2 hPa 0,0 l/m 0 min 0 min 0 W/m 31,4 km/h (5 Bft) 97,87 %
20.03.2017 02:20 9,7 C 10,0 C 8,9 C 92 % 0 lf 1008,2 hPa 0,0 l/m 0 min 0 min 0 W/m 31,4 km/h (5 Bft) 95,65 %
20.03.2017 02:22 9,7 C 10,0 C 8,9 C 92 % 0 lf 1008,2 hPa 0,0 l/m 0 min 0 min 0 W/m 18,8 km/h (3 Bft) 97,92 %
20.03.2017 02:24 9,8 C 10,0 C 8,9 C 92 % 0 lf 1008,2 hPa 0,0 l/m 0 min 0 min 0 W/m 29,3 km/h (5 Bft) 97,87 %
20.03.2017 02:26 9,8 C 10,0 C 8,9 C 92 % 0 lf 1008,1 hPa 0,0 l/m 0 min 0 min 0 W/m 27,2 km/h (4 Bft) 97,87 %
20.03.2017 02:28 9,8 C 10,0 C 8,9 C 92 % 0 lf 1008,2 hPa 0,0 l/m 0 min 0 min 0 W/m 18,8 km/h (3 Bft) 97,87 %
20.03.2017 02:30 9,8 C 10,0 C 8,9 C 92 % 0 lf 1008,2 hPa 0,0 l/m 0 min 0 min 0 W/m 29,3 km/h (5 Bft) 97,87 %
20.03.2017 02:32 9,8 C 10,0 C 8,9 C 92 % 0 lf 1008,2 hPa 0,0 l/m 0 min 0 min 0 W/m 31,4 km/h (5 Bft) 91,67 %
20.03.2017 02:34 9,8 C 10,0 C 8,9 C 92 % 0 lf 1008,2 hPa 0,0 l/m 0 min 0 min 0 W/m 16,7 km/h (3 Bft) 95,74 %
20.03.2017 02:36 9,8 C 10,6 C 8,9 C 91 % 0 lf 1008,2 hPa 0,0 l/m 0 min 0 min 0 W/m 27,2 km/h (4 Bft) 97,96 %
20.03.2017 02:38 9,9 C 10,6 C 8,9 C 91 % 0 lf 1008,2 hPa 0,0 l/m 0 min 0 min 0 W/m 20,9 km/h (4 Bft) 93,62 %
20.03.2017 02:40 9,9 C 10,6 C 8,9 C 91 % 0 lf 1008,2 hPa 0,0 l/m 0 min 0 min 0 W/m 27,2 km/h (4 Bft) 97,87 %
20.03.2017 02:42 9,9 C 10,6 C 8,9 C 91 % 0 lf 1008,2 hPa 0,0 l/m 0 min 0 min 0 W/m 39,7 km/h (6 Bft) 95,65 %
20.03.2017 02:44 9,9 C 10,6 C 8,9 C 91 % 0 lf 1008,2 hPa 0,0 l/m 0 min 0 min 0 W/m 35,6 km/h (5 Bft) 97,87 %
20.03.2017 02:46 9,9 C 10,6 C 8,9 C 91 % 0 lf 1008,2 hPa 0,0 l/m 0 min 0 min 0 W/m 29,3 km/h (5 Bft) 97,87 %
20.03.2017 02:48 10,0 C 10,6 C 8,9 C 90 % 0 lf 1008,1 hPa 0,0 l/m 0 min 0 min 0 W/m 25,1 km/h (4 Bft) 89,36 %
20.03.2017 02:50 10,0 C 10,6 C 8,9 C 90 % 0 lf 1008,1 hPa 0,0 l/m 0 min 0 min 0 W/m 16,7 km/h (3 Bft) 93,62 %
20.03.2017 02:52 10,0 C 10,6 C 8,9 C 90 % 0 lf 1008,2 hPa 0,0 l/m 0 min 0 min 0 W/m 29,3 km/h (5 Bft) 97,87 %
20.03.2017 02:54 10,1 C 10,6 C 8,9 C 90 % 0 lf 1008,2 hPa 0,0 l/m 0 min 0 min 0 W/m 23,0 km/h (4 Bft) 95,65 %
20.03.2017 02:56 10,1 C 10,6 C 8,9 C 90 % 0 lf 1008,2 hPa 0,0 l/m 0 min 0 min 0 W/m 23,0 km/h (4 Bft) 93,62 %
20.03.2017 02:58 10,1 C 10,6 C 8,9 C 90 % 0 lf 1008,2 hPa 0,0 l/m 0 min 0 min 0 W/m 20,9 km/h (4 Bft) 95,74 %
20.03.2017 03:00 10,1 C 10,6 C 8,9 C 89 % 0 lf 1008,1 hPa 0,0 l/m 0 min 0 min 0 W/m 27,2 km/h (4 Bft) 93,62 %
20.03.2017 03:02 10,1 C 10,6 C 8,9 C 89 % 0 lf 1008,1 hPa 0,0 l/m 0 min 0 min 0 W/m 23,0 km/h (4 Bft) 97,87 %
20.03.2017 03:04 10,1 C 10,6 C 8,9 C 89 % 0 lf 1008,1 hPa 0,0 l/m 0 min 0 min 0 W/m 20,9 km/h (4 Bft) 97,87 %
20.03.2017 03:06 10,1 C 10,6 C 8,9 C 89 % 0 lf 1008,1 hPa 0,0 l/m 0 min 0 min 0 W/m 25,1 km/h (4 Bft) 90,48 %
20.03.2017 03:08 10,2 C 10,6 C 8,9 C 89 % 0 lf 1008,1 hPa 0,0 l/m 0 min 0 min 0 W/m 39,7 km/h (6 Bft) 95,65 %
20.03.2017 03:10 10,2 C 10,6 C 8,9 C 89 % 0 lf 1008,1 hPa 0,0 l/m 0 min 0 min 0 W/m 27,2 km/h (4 Bft) 93,62 %
20.03.2017 03:12 10,2 C 10,6 C 8,9 C 89 % 0 lf 1008,0 hPa 0,0 l/m 0 min 0 min 0 W/m 27,2 km/h (4 Bft) 91,67 %
20.03.2017 03:14 10,2 C 10,6 C 8,9 C 89 % 0 lf 1008,0 hPa 0,0 l/m 0 min 0 min 0 W/m 25,1 km/h (4 Bft) 91,49 %
20.03.2017 03:16 10,2 C 10,6 C 8,9 C 89 % 0 lf 1008,1 hPa 0,0 l/m 0 min 0 min 0 W/m 23,0 km/h (4 Bft) 91,49 %
20.03.2017 03:18 10,2 C 10,6 C 8,9 C 89 % 0 lf 1008,1 hPa 0,0 l/m 0 min 0 min 0 W/m 23,0 km/h (4 Bft) 89,13 %
20.03.2017 03:20 10,2 C 10,6 C 8,9 C 89 % 0 lf 1008,1 hPa 0,0 l/m 0 min 0 min 0 W/m 20,9 km/h (4 Bft) 91,49 %
20.03.2017 03:22 10,2 C 10,6 C 8,9 C 89 % 0 lf 1008,1 hPa 0,0 l/m 0 min 0 min 0 W/m 27,2 km/h (4 Bft) 91,49 %
20.03.2017 03:24 10,2 C 10,6 C 8,9 C 89 % 0 lf 1008,1 hPa 0,0 l/m 0 min 0 min 0 W/m 27,2 km/h (4 Bft) 91,49 %
20.03.2017 03:26 10,2 C 10,6 C 8,9 C 89 % 0 lf 1008,1 hPa 0,0 l/m 0 min 0 min 0 W/m 23,0 km/h (4 Bft) 91,49 %
20.03.2017 03:28 10,2 C 10,6 C 8,9 C 89 % 0 lf 1008,2 hPa 0,0 l/m 0 min 0 min 0 W/m 23,0 km/h (4 Bft) 93,62 %
20.03.2017 03:30 10,2 C 10,6 C 8,9 C 89 % 0 lf 1008,1 hPa 0,0 l/m 0 min 0 min 0 W/m 29,3 km/h (5 Bft) 91,30 %
20.03.2017 03:32 10,2 C 10,6 C 8,9 C 89 % 0 lf 1008,0 hPa 0,0 l/m 0 min 0 min 0 W/m 29,3 km/h (5 Bft) 90,00 %
20.03.2017 03:34 10,2 C 10,6 C 8,9 C 89 % 0 lf 1008,1 hPa 0,0 l/m 0 min 0 min 0 W/m 25,1 km/h (4 Bft) 93,62 %
20.03.2017 03:36 10,2 C 10,6 C 8,9 C 89 % 0 lf 1008,1 hPa 0,0 l/m 0 min 0 min 0 W/m 23,0 km/h (4 Bft) 93,75 %
20.03.2017 03:38 10,1 C 10,0 C 8,9 C 89 % 0 lf 1008,0 hPa 0,0 l/m 0 min 0 min 0 W/m 23,0 km/h (4 Bft) 95,74 %
20.03.2017 03:40 10,1 C 10,0 C 8,9 C 89 % 0 lf 1008,0 hPa 0,0 l/m 0 min 0 min 0 W/m 18,8 km/h (3 Bft) 93,62 %
20.03.2017 03:42 10,1 C 10,6 C 8,9 C 89 % 0 lf 1008,0 hPa 0,0 l/m 0 min 0 min 0 W/m 25,1 km/h (4 Bft) 97,83 %
20.03.2017 03:44 10,1 C 10,6 C 8,9 C 89 % 0 lf 1008,0 hPa 0,0 l/m 0 min 0 min 0 W/m 27,2 km/h (4 Bft) 97,87 %
20.03.2017 03:46 10,1 C 10,0 C 8,9 C 89 % 0 lf 1008,1 hPa 0,0 l/m 0 min 0 min 0 W/m 23,0 km/h (4 Bft) 95,74 %
20.03.2017 03:48 10,1 C 10,0 C 8,9 C 89 % 0 lf 1008,1 hPa 0,0 l/m 0 min 0 min 0 W/m 27,2 km/h (4 Bft) 95,74 %
20.03.2017 03:50 10,1 C 10,0 C 8,9 C 89 % 0 lf 1008,0 hPa 0,0 l/m 0 min 0 min 0 W/m 20,9 km/h (4 Bft) 97,87 %
20.03.2017 03:52 10,1 C 10,0 C 8,9 C 89 % 0 lf 1008,1 hPa 0,0 l/m 0 min 0 min 0 W/m 31,4 km/h (5 Bft) 93,62 %
20.03.2017 03:54 10,1 C 10,6 C 8,9 C 89 % 0 lf 1008,1 hPa 0,0 l/m 0 min 0 min 0 W/m 29,3 km/h (5 Bft) 97,83 %
20.03.2017 03:56 10,1 C 10,6 C 8,9 C 89 % 0 lf 1008,1 hPa 0,0 l/m 0 min 0 min 0 W/m 29,3 km/h (5 Bft) 91,49 %
20.03.2017 03:58 10,1 C 10,6 C 8,9 C 89 % 0 lf 1007,9 hPa 0,0 l/m 0 min 0 min 0 W/m 27,2 km/h (4 Bft) 95,74 %
20.03.2017 04:00 10,1 C 10,6 C 8,9 C 89 % 0 lf 1008,0 hPa 0,0 l/m 0 min 0 min 0 W/m 29,3 km/h (5 Bft) 95,74 %
20.03.2017 04:05 10,1 C 10,6 C 8,9 C 89 % 0 lf 1007,9 hPa 0,0 l/m 0 min 0 min 0 W/m 27,2 km/h (4 Bft) 96,43 %
20.03.2017 04:06 10,1 C 10,6 C 8,9 C 89 % 0 lf 1007,9 hPa 0,0 l/m 0 min 0 min 0 W/m 27,2 km/h (4 Bft) 91,67 %
20.03.2017 04:08 10,1 C 10,6 C 8,9 C 89 % 0 lf 1008,0 hPa 0,0 l/m 0 min 0 min 0 W/m 23,0 km/h (4 Bft) 93,48 %
20.03.2017 04:10 10,1 C 10,6 C 8,9 C 89 % 0 lf 1008,0 hPa 0,0 l/m 0 min 0 min 0 W/m 31,4 km/h (5 Bft) 95,74 %
20.03.2017 04:12 10,1 C 10,6 C 8,9 C 88 % 0 lf 1008,0 hPa 0,0 l/m 0 min 0 min 0 W/m 37,7 km/h (5 Bft) 96,61 %
20.03.2017 04:14 10,1 C 10,6 C 8,9 C 88 % 0 lf 1008,0 hPa 0,0 l/m 0 min 0 min 0 W/m 27,2 km/h (4 Bft) 95,74 %
20.03.2017 04:16 10,1 C 10,6 C 8,9 C 88 % 0 lf 1008,0 hPa 0,0 l/m 0 min 0 min 0 W/m 18,8 km/h (3 Bft) 97,87 %
20.03.2017 04:18 10,2 C 10,6 C 8,9 C 88 % 0 lf 1008,0 hPa 0,0 l/m 0 min 0 min 0 W/m 27,2 km/h (4 Bft) 97,83 %
20.03.2017 04:20 10,2 C 10,6 C 8,9 C 88 % 0 lf 1008,0 hPa 0,0 l/m 0 min 0 min 0 W/m 23,0 km/h (4 Bft) 97,87 %
20.03.2017 04:22 10,2 C 10,6 C 8,9 C 88 % 0 lf 1008,1 hPa 0,0 l/m 0 min 0 min 0 W/m 25,1 km/h (4 Bft) 100,00 %
20.03.2017 04:24 10,2 C 10,6 C 8,9 C 88 % 0 lf 1008,1 hPa 0,0 l/m 0 min 0 min 0 W/m 18,8 km/h (3 Bft) 93,62 %
20.03.2017 04:26 10,2 C 10,6 C 8,9 C 88 % 0 lf 1008,1 hPa 0,0 l/m 0 min 0 min 0 W/m 27,2 km/h (4 Bft) 97,87 %
20.03.2017 04:28 10,2 C 10,6 C 8,9 C 88 % 0 lf 1008,1 hPa 0,0 l/m 0 min 0 min 0 W/m 23,0 km/h (4 Bft) 97,83 %
20.03.2017 04:30 10,2 C 10,6 C 8,9 C 88 % 0 lf 1008,2 hPa 0,0 l/m 0 min 0 min 0 W/m 25,1 km/h (4 Bft) 100,00 %
20.03.2017 04:32 10,2 C 10,6 C 8,9 C 88 % 0 lf 1008,1 hPa 0,0 l/m 0 min 0 min 0 W/m 20,9 km/h (4 Bft) 100,00 %
20.03.2017 04:34 10,2 C 10,6 C 8,9 C 88 % 0 lf 1008,1 hPa 0,0 l/m 0 min 0 min 0 W/m 31,4 km/h (5 Bft) 93,62 %
20.03.2017 04:36 10,2 C 10,6 C 8,9 C 88 % 0 lf 1008,2 hPa 0,0 l/m 0 min 0 min 0 W/m 37,7 km/h (5 Bft) 96,36 %
20.03.2017 04:38 10,2 C 10,6 C 8,9 C 88 % 0 lf 1008,2 hPa 0,0 l/m 0 min 0 min 0 W/m 23,0 km/h (4 Bft) 97,87 %
20.03.2017 04:40 10,2 C 10,6 C 8,9 C 88 % 0 lf 1008,1 hPa 0,0 l/m 0 min 0 min 0 W/m 35,6 km/h (5 Bft) 100,00 %
20.03.2017 04:42 10,2 C 10,6 C 8,9 C 88 % 1 lf 1008,1 hPa 0,0 l/m 0 min 0 min 0 W/m 35,6 km/h (5 Bft) 100,00 %
20.03.2017 04:44 10,2 C 10,6 C 8,9 C 88 % 0 lf 1008,2 hPa 0,0 l/m 0 min 0 min 0 W/m 25,1 km/h (4 Bft) 87,23 %
20.03.2017 04:46 10,2 C 10,0 C 8,9 C 88 % 0 lf 1008,2 hPa 0,0 l/m 0 min 0 min 0 W/m 29,3 km/h (5 Bft) 97,87 %
20.03.2017 04:48 10,2 C 10,0 C 8,9 C 88 % 0 lf 1008,2 hPa 0,0 l/m 0 min 0 min 0 W/m 35,6 km/h (5 Bft) 97,87 %
20.03.2017 04:50 10,1 C 10,0 C 8,9 C 88 % 0 lf 1008,1 hPa 0,0 l/m 0 min 0 min 0 W/m 23,0 km/h (4 Bft) 100,00 %
20.03.2017 04:52 10,1 C 10,0 C 8,3 C 88 % 0 lf 1008,1 hPa 0,0 l/m 0 min 0 min 0 W/m 23,0 km/h (4 Bft) 100,00 %
20.03.2017 04:54 10,1 C 10,0 C 8,3 C 88 % 0 lf 1008,0 hPa 0,0 l/m 0 min 0 min 0 W/m 18,8 km/h (3 Bft) 97,87 %
20.03.2017 04:56 10,1 C 10,0 C 8,3 C 88 % 0 lf 1008,1 hPa 0,0 l/m 0 min 0 min 0 W/m 20,9 km/h (4 Bft) 95,74 %
20.03.2017 04:58 10,1 C 10,0 C 8,9 C 88 % 0 lf 1008,1 hPa 0,0 l/m 0 min 0 min 0 W/m 23,0 km/h (4 Bft) 95,74 %
20.03.2017 05:00 10,1 C 10,0 C 8,9 C 88 % 0 lf 1008,1 hPa 0,0 l/m 0 min 0 min 0 W/m 27,2 km/h (4 Bft) 97,87 %
20.03.2017 05:02 10,0 C 10,0 C 8,9 C 89 % 0 lf 1008,0 hPa 0,0 l/m 0 min 0 min 0 W/m 25,1 km/h (4 Bft) 95,83 %
20.03.2017 05:04 10,0 C 10,0 C 8,9 C 89 % 0 lf 1008,0 hPa 0,0 l/m 0 min 0 min 0 W/m 25,1 km/h (4 Bft) 95,74 %
20.03.2017 05:06 10,0 C 10,0 C 8,9 C 89 % 0 lf 1008,0 hPa 0,0 l/m 0 min 0 min 0 W/m 23,0 km/h (4 Bft) 93,75 %
20.03.2017 05:08 10,0 C 10,0 C 8,9 C 89 % 0 lf 1008,0 hPa 0,0 l/m 0 min 0 min 0 W/m 25,1 km/h (4 Bft) 95,74 %
20.03.2017 05:10 10,0 C 10,0 C 8,9 C 89 % 0 lf 1007,9 hPa 0,0 l/m 0 min 0 min 0 W/m 23,0 km/h (4 Bft) 93,62 %
20.03.2017 05:12 10,0 C 10,0 C 8,9 C 89 % 0 lf 1007,8 hPa 0,0 l/m 0 min 0 min 0 W/m 14,6 km/h (3 Bft) 93,62 %
20.03.2017 05:14 10,0 C 10,0 C 8,9 C 89 % 0 lf 1007,8 hPa 0,0 l/m 0 min 0 min 0 W/m 25,1 km/h (4 Bft) 91,30 %
20.03.2017 05:16 10,0 C 10,0 C 8,9 C 89 % 0 lf 1007,8 hPa 0,0 l/m 0 min 0 min 0 W/m 25,1 km/h (4 Bft) 95,74 %
20.03.2017 05:18 10,0 C 10,0 C 8,9 C 89 % 0 lf 1007,8 hPa 0,0 l/m 0 min 0 min 0 W/m 35,6 km/h (5 Bft) 93,62 %
20.03.2017 05:20 10,0 C 10,6 C 8,9 C 89 % 0 lf 1007,8 hPa 0,0 l/m 0 min 0 min 0 W/m 25,1 km/h (4 Bft) 91,49 %
20.03.2017 05:22 10,0 C 10,6 C 8,9 C 89 % 0 lf 1007,8 hPa 0,0 l/m 0 min 0 min 0 W/m 25,1 km/h (4 Bft) 95,74 %
20.03.2017 05:24 10,0 C 10,6 C 8,9 C 88 % 0 lf 1007,9 hPa 0,0 l/m 0 min 0 min 0 W/m 29,3 km/h (5 Bft) 91,49 %
20.03.2017 05:26 10,0 C 10,6 C 8,9 C 88 % 0 lf 1007,8 hPa 0,0 l/m 0 min 0 min 0 W/m 23,0 km/h (4 Bft) 93,48 %
20.03.2017 05:28 10,0 C 10,6 C 8,9 C 88 % 0 lf 1007,9 hPa 0,0 l/m 0 min 0 min 0 W/m 29,3 km/h (5 Bft) 93,62 %
20.03.2017 05:30 10,1 C 10,6 C 8,9 C 88 % 0 lf 1007,8 hPa 0,0 l/m 0 min 0 min 0 W/m 18,8 km/h (3 Bft) 95,74 %
20.03.2017 05:32 10,1 C 10,0 C 8,9 C 88 % 0 lf 1007,8 hPa 0,0 l/m 0 min 0 min 0 W/m 16,7 km/h (3 Bft) 93,62 %
20.03.2017 05:34 10,1 C 10,0 C 8,9 C 88 % 0 lf 1007,8 hPa 0,0 l/m 0 min 0 min 0 W/m 23,0 km/h (4 Bft) 91,49 %
20.03.2017 05:36 10,1 C 10,0 C 8,9 C 88 % 0 lf 1007,8 hPa 0,0 l/m 0 min 0 min 0 W/m 14,6 km/h (3 Bft) 97,62 %
20.03.2017 05:38 10,1 C 10,0 C 8,9 C 88 % 0 lf 1007,8 hPa 0,0 l/m 0 min 0 min 0 W/m 29,3 km/h (5 Bft) 95,65 %
20.03.2017 05:40 10,1 C 10,0 C 8,9 C 88 % 0 lf 1007,7 hPa 0,0 l/m 0 min 0 min 0 W/m 27,2 km/h (4 Bft) 91,49 %
20.03.2017 05:42 10,1 C 10,6 C 8,9 C 88 % 0 lf 1007,7 hPa 0,0 l/m 0 min 0 min 0 W/m 25,1 km/h (4 Bft) 93,75 %
20.03.2017 05:44 10,1 C 10,6 C 8,9 C 88 % 0 lf 1007,8 hPa 0,0 l/m 0 min 0 min 0 W/m 25,1 km/h (4 Bft) 95,74 %
20.03.2017 05:46 10,1 C 10,6 C 8,9 C 88 % 0 lf 1007,8 hPa 0,0 l/m 0 min 0 min 0 W/m 35,6 km/h (5 Bft) 97,87 %
20.03.2017 05:48 10,1 C 10,6 C 8,9 C 88 % 0 lf 1007,7 hPa 0,0 l/m 0 min 0 min 0 W/m 18,8 km/h (3 Bft) 89,36 %
20.03.2017 05:50 10,1 C 10,6 C 8,9 C 88 % 0 lf 1007,7 hPa 0,0 l/m 0 min 0 min 0 W/m 16,7 km/h (3 Bft) 97,83 %
20.03.2017 05:52 10,1 C 10,6 C 8,9 C 88 % 0 lf 1007,7 hPa 0,0 l/m 0 min 0 min 0 W/m 14,6 km/h (3 Bft) 93,62 %
20.03.2017 05:54 10,1 C 10,6 C 8,9 C 88 % 0 lf 1007,6 hPa 0,0 l/m 0 min 0 min 0 W/m 20,9 km/h (4 Bft) 91,49 %
20.03.2017 05:56 10,1 C 10,6 C 8,9 C 88 % 0 lf 1007,7 hPa 0,0 l/m 0 min 0 min 0 W/m 20,9 km/h (4 Bft) 97,87 %
20.03.2017 05:58 10,1 C 10,6 C 8,9 C 88 % 0 lf 1007,7 hPa 0,0 l/m 0 min 0 min 0 W/m 27,2 km/h (4 Bft) 95,74 %
20.03.2017 06:00 10,1 C 10,6 C 8,9 C 88 % 0 lf 1007,7 hPa 0,0 l/m 0 min 0 min 0 W/m 18,8 km/h (3 Bft) 95,74 %
20.03.2017 06:02 10,1 C 10,6 C 8,9 C 88 % 0 lf 1007,7 hPa 0,0 l/m 0 min 0 min 0 W/m 16,7 km/h (3 Bft) 93,75 %
20.03.2017 06:04 10,1 C 10,6 C 8,9 C 88 % 0 lf 1007,7 hPa 0,0 l/m 0 min 0 min 0 W/m 16,7 km/h (3 Bft) 95,92 %
20.03.2017 06:06 10,1 C 10,6 C 8,9 C 88 % 0 lf 1007,7 hPa 0,0 l/m 0 min 0 min 0 W/m 14,6 km/h (3 Bft) 97,87 %
20.03.2017 06:08 10,1 C 10,6 C 8,9 C 88 % 0 lf 1007,7 hPa 0,0 l/m 0 min 0 min 0 W/m 12,6 km/h (3 Bft) 97,87 %
20.03.2017 06:10 10,1 C 10,6 C 8,9 C 88 % 0 lf 1007,7 hPa 0,0 l/m 0 min 0 min 0 W/m 18,8 km/h (3 Bft) 93,62 %
20.03.2017 06:12 10,1 C 10,6 C 8,9 C 88 % 0 lf 1007,6 hPa 0,0 l/m 0 min 0 min 0 W/m 23,0 km/h (4 Bft) 97,87 %
20.03.2017 06:14 10,1 C 10,6 C 8,9 C 88 % 0 lf 1007,6 hPa 0,0 l/m 0 min 0 min 0 W/m 20,9 km/h (4 Bft) 95,65 %
20.03.2017 06:16 10,1 C 10,6 C 8,9 C 88 % 0 lf 1007,6 hPa 0,0 l/m 0 min 0 min 0 W/m 27,2 km/h (4 Bft) 95,74 %
20.03.2017 06:18 10,1 C 10,6 C 8,9 C 88 % 0 lf 1007,6 hPa 0,0 l/m 0 min 0 min 0 W/m 16,7 km/h (3 Bft) 95,74 %
20.03.2017 06:20 10,1 C 10,6 C 8,9 C 88 % 0 lf 1007,7 hPa 0,0 l/m 0 min 0 min 0 W/m 18,8 km/h (3 Bft) 97,87 %
20.03.2017 06:22 10,1 C 10,6 C 8,9 C 88 % 0 lf 1007,7 hPa 0,0 l/m 0 min 0 min 0 W/m 29,3 km/h (5 Bft) 93,62 %
20.03.2017 06:24 10,1 C 10,6 C 8,9 C 88 % 0 lf 1007,8 hPa 0,0 l/m 0 min 0 min 0 W/m 18,8 km/h (3 Bft) 97,83 %
20.03.2017 06:26 10,1 C 10,6 C 8,9 C 88 % 0 lf 1007,8 hPa 0,0 l/m 0 min 0 min 0 W/m 18,8 km/h (3 Bft) 95,74 %
20.03.2017 06:28 10,1 C 10,6 C 8,9 C 88 % 0 lf 1007,7 hPa 0,0 l/m 0 min 0 min 0 W/m 29,3 km/h (5 Bft) 95,74 %
20.03.2017 06:30 10,2 C 10,6 C 8,9 C 88 % 0 lf 1007,9 hPa 0,0 l/m 0 min 0 min 0 W/m 29,3 km/h (5 Bft) 100,00 %
20.03.2017 06:32 10,2 C 10,6 C 8,9 C 88 % 0 lf 1007,8 hPa 0,0 l/m 0 min 0 min 0 W/m 25,1 km/h (4 Bft) 97,14 %
20.03.2017 06:34 10,2 C 10,6 C 8,9 C 88 % 0 lf 1007,8 hPa 0,0 l/m 0 min 0 min 0 W/m 16,7 km/h (3 Bft) 95,74 %
20.03.2017 06:36 10,2 C 10,6 C 8,9 C 88 % 0 lf 1007,7 hPa 0,0 l/m 0 min 0 min 0 W/m 18,8 km/h (3 Bft) 97,87 %
20.03.2017 06:38 10,2 C 10,6 C 8,9 C 88 % 0 lf 1007,7 hPa 0,0 l/m 0 min 0 min 2 W/m 16,7 km/h (3 Bft) 97,87 %
20.03.2017 06:40 10,2 C 10,6 C 8,9 C 88 % 0 lf 1007,7 hPa 0,0 l/m 0 min 0 min 5 W/m 27,2 km/h (4 Bft) 100,00 %
20.03.2017 06:42 10,2 C 10,6 C 8,9 C 88 % 0 lf 1007,7 hPa 0,0 l/m 0 min 0 min 5 W/m 23,0 km/h (4 Bft) 100,00 %
20.03.2017 06:44 10,2 C 10,6 C 8,9 C 87 % 0 lf 1007,7 hPa 0,0 l/m 0 min 0 min 5 W/m 20,9 km/h (4 Bft) 93,62 %
20.03.2017 06:46 10,2 C 10,6 C 8,9 C 87 % 0 lf 1007,7 hPa 0,0 l/m 0 min 0 min 5 W/m 25,1 km/h (4 Bft) 97,87 %
20.03.2017 06:48 10,2 C 10,6 C 8,9 C 87 % 0 lf 1007,7 hPa 0,0 l/m 0 min 0 min 6 W/m 25,1 km/h (4 Bft) 100,00 %
20.03.2017 06:50 10,2 C 10,6 C 8,9 C 87 % 0 lf 1007,7 hPa 0,0 l/m 0 min 0 min 7 W/m 29,3 km/h (5 Bft) 97,83 %
20.03.2017 06:52 10,3 C 10,6 C 8,9 C 87 % 0 lf 1007,7 hPa 0,0 l/m 0 min 0 min 7 W/m 23,0 km/h (4 Bft) 100,00 %
20.03.2017 06:54 10,3 C 10,6 C 8,9 C 87 % 0 lf 1007,7 hPa 0,0 l/m 0 min 0 min 7 W/m 20,9 km/h (4 Bft) 95,74 %
20.03.2017 06:56 10,3 C 10,6 C 8,9 C 87 % 0 lf 1007,7 hPa 0,0 l/m 0 min 0 min 7 W/m 23,0 km/h (4 Bft) 97,87 %
20.03.2017 06:58 10,3 C 10,6 C 8,9 C 87 % 0 lf 1007,9 hPa 0,0 l/m 0 min 0 min 7 W/m 20,9 km/h (4 Bft) 97,87 %
20.03.2017 07:00 10,3 C 10,6 C 8,9 C 87 % 0 lf 1007,8 hPa 0,0 l/m 0 min 0 min 9 W/m 16,7 km/h (3 Bft) 95,65 %
20.03.2017 07:02 10,3 C 10,6 C 8,9 C 87 % 0 lf 1007,9 hPa 0,0 l/m 0 min 0 min 9 W/m 20,9 km/h (4 Bft) 95,92 %
20.03.2017 07:04 10,3 C 10,6 C 8,9 C 87 % 1 lf 1007,9 hPa 0,0 l/m 0 min 0 min 9 W/m 35,6 km/h (5 Bft) 93,62 %
20.03.2017 07:06 10,3 C 10,0 C 8,9 C 87 % 4 lf 1008,1 hPa 0,0 l/m 0 min 0 min 9 W/m 31,4 km/h (5 Bft) 94,00 %
20.03.2017 07:08 10,3 C 10,0 C 8,3 C 87 % 13 lf 1007,9 hPa 0,0 l/m 0 min 0 min 9 W/m 27,2 km/h (4 Bft) 95,74 %
20.03.2017 07:10 10,3 C 10,0 C 8,3 C 88 % 15 lf 1008,0 hPa 0,0 l/m 0 min 0 min 11 W/m 20,9 km/h (4 Bft) 95,65 %
20.03.2017 07:12 10,3 C 9,4 C 7,8 C 88 % 15 lf 1008,0 hPa 0,0 l/m 0 min 2 min 12 W/m 27,2 km/h (4 Bft) 95,83 %
20.03.2017 07:14 10,2 C 9,4 C 7,8 C 88 % 15 lf 1008,1 hPa 0,0 l/m 0 min 0 min 15 W/m 18,8 km/h (3 Bft) 95,74 %
20.03.2017 07:16 10,2 C 10,0 C 7,8 C 88 % 15 lf 1008,1 hPa 0,0 l/m 0 min 0 min 16 W/m 27,2 km/h (4 Bft) 95,74 %
20.03.2017 07:18 10,2 C 10,0 C 7,8 C 88 % 15 lf 1008,1 hPa 0,0 l/m 0 min 0 min 15 W/m 29,3 km/h (5 Bft) 95,74 %
20.03.2017 07:20 10,2 C 10,0 C 7,8 C 88 % 15 lf 1008,1 hPa 0,0 l/m 0 min 0 min 14 W/m 29,3 km/h (5 Bft) 93,62 %
20.03.2017 07:22 10,1 C 9,4 C 7,8 C 89 % 15 lf 1008,2 hPa 0,0 l/m 0 min 0 min 14 W/m 20,9 km/h (4 Bft) 93,48 %
20.03.2017 07:24 10,1 C 9,4 C 7,8 C 89 % 14 lf 1008,1 hPa 0,0 l/m 0 min 0 min 17 W/m 18,8 km/h (3 Bft) 93,62 %
20.03.2017 07:26 10,1 C 10,0 C 7,8 C 89 % 13 lf 1008,1 hPa 0,0 l/m 0 min 0 min 19 W/m 20,9 km/h (4 Bft) 95,74 %
20.03.2017 07:28 10,1 C 10,0 C 7,8 C 89 % 11 lf 1008,1 hPa 0,0 l/m 0 min 0 min 17 W/m 25,1 km/h (4 Bft) 95,74 %
20.03.2017 07:30 10,1 C 10,0 C 7,8 C 89 % 10 lf 1008,1 hPa 0,0 l/m 0 min 0 min 17 W/m 18,8 km/h (3 Bft) 95,74 %
20.03.2017 07:32 10,1 C 10,0 C 7,8 C 89 % 6 lf 1008,1 hPa 0,0 l/m 0 min 0 min 17 W/m 20,9 km/h (4 Bft) 97,96 %
20.03.2017 07:34 10,0 C 10,0 C 7,8 C 90 % 3 lf 1008,1 hPa 0,0 l/m 0 min 0 min 14 W/m 20,9 km/h (4 Bft) 93,48 %
20.03.2017 07:36 10,0 C 10,0 C 7,8 C 90 % 1 lf 1008,2 hPa 0,0 l/m 0 min 0 min 14 W/m 20,9 km/h (4 Bft) 97,22 %
20.03.2017 07:38 10,0 C 10,0 C 8,3 C 90 % 0 lf 1008,1 hPa 0,0 l/m 0 min 0 min 16 W/m 25,1 km/h (4 Bft) 95,65 %
20.03.2017 07:40 10,0 C 10,0 C 8,3 C 90 % 0 lf 1008,2 hPa 0,0 l/m 0 min 0 min 15 W/m 25,1 km/h (4 Bft) 95,74 %
20.03.2017 07:42 9,9 C 10,6 C 8,3 C 90 % 0 lf 1008,2 hPa 0,0 l/m 0 min 0 min 19 W/m 39,7 km/h (6 Bft) 97,87 %
20.03.2017 07:44 10,0 C 10,6 C 8,3 C 90 % 0 lf 1008,1 hPa 0,0 l/m 0 min 0 min 22 W/m 29,3 km/h (5 Bft) 97,87 %
20.03.2017 07:46 9,9 C 10,6 C 8,3 C 90 % 0 lf 1008,2 hPa 0,0 l/m 0 min 0 min 24 W/m 20,9 km/h (4 Bft) 97,87 %
20.03.2017 07:48 10,0 C 10,6 C 8,9 C 90 % 0 lf 1008,2 hPa 0,0 l/m 0 min 0 min 30 W/m 18,8 km/h (3 Bft) 95,74 %
20.03.2017 07:50 10,0 C 10,6 C 8,9 C 90 % 1 lf 1008,1 hPa 0,0 l/m 0 min 0 min 26 W/m 27,2 km/h (4 Bft) 86,96 %
20.03.2017 07:52 10,0 C 10,6 C 8,9 C 90 % 0 lf 1008,2 hPa 0,0 l/m 0 min 0 min 35 W/m 33,5 km/h (5 Bft) 97,87 %
20.03.2017 07:54 10,1 C 10,6 C 8,9 C 90 % 0 lf 1008,2 hPa 0,0 l/m 0 min 0 min 43 W/m 25,1 km/h (4 Bft) 95,74 %
20.03.2017 07:56 10,1 C 10,6 C 8,9 C 90 % 0 lf 1008,2 hPa 0,0 l/m 0 min 0 min 52 W/m 23,0 km/h (4 Bft) 95,74 %
20.03.2017 07:58 10,1 C 10,6 C 8,9 C 90 % 0 lf 1008,1 hPa 0,0 l/m 0 min 0 min 56 W/m 35,6 km/h (5 Bft) 95,74 %
20.03.2017 08:00 10,1 C 10,6 C 8,9 C 90 % 0 lf 1008,1 hPa 0,0 l/m 0 min 0 min 44 W/m 31,4 km/h (5 Bft) 93,62 %
20.03.2017 08:02 10,1 C 10,6 C 8,9 C 90 % 0 lf 1008,2 hPa 0,0 l/m 0 min 0 min 30 W/m 29,3 km/h (5 Bft) 89,13 %
20.03.2017 08:04 10,1 C 10,6 C 8,9 C 90 % 0 lf 1008,1 hPa 0,0 l/m 0 min 0 min 34 W/m 31,4 km/h (5 Bft) 93,62 %
20.03.2017 08:06 10,1 C 10,6 C 8,9 C 90 % 0 lf 1008,1 hPa 0,0 l/m 0 min 0 min 40 W/m 25,1 km/h (4 Bft) 94,55 %
20.03.2017 08:08 10,1 C 10,6 C 8,9 C 90 % 0 lf 1008,1 hPa 0,0 l/m 0 min 0 min 39 W/m 20,9 km/h (4 Bft) 93,62 %
20.03.2017 08:10 10,1 C 10,6 C 8,9 C 90 % 0 lf 1008,1 hPa 0,0 l/m 0 min 0 min 37 W/m 27,2 km/h (4 Bft) 95,65 %
20.03.2017 08:12 10,1 C 10,6 C 9,4 C 90 % 0 lf 1008,1 hPa 0,0 l/m 0 min 0 min 38 W/m 25,1 km/h (4 Bft) 95,92 %
20.03.2017 08:14 10,1 C 10,6 C 9,4 C 90 % 0 lf 1008,2 hPa 0,0 l/m 0 min 0 min 45 W/m 37,7 km/h (5 Bft) 95,74 %
20.03.2017 08:16 10,1 C 10,6 C 9,4 C 90 % 0 lf 1008,2 hPa 0,0 l/m 0 min 0 min 45 W/m 27,2 km/h (4 Bft) 91,49 %
20.03.2017 08:18 10,1 C 10,6 C 8,9 C 90 % 0 lf 1008,1 hPa 0,0 l/m 0 min 0 min 39 W/m 37,7 km/h (5 Bft) 97,87 %
20.03.2017 08:20 10,1 C 10,6 C 9,4 C 90 % 0 lf 1008,0 hPa 0,0 l/m 0 min 0 min 44 W/m 31,4 km/h (5 Bft) 95,65 %
20.03.2017 08:22 10,1 C 10,6 C 9,4 C 90 % 0 lf 1008,0 hPa 0,0 l/m 0 min 0 min 63 W/m 23,0 km/h (4 Bft) 93,62 %
20.03.2017 08:24 10,1 C 10,6 C 9,4 C 90 % 0 lf 1007,9 hPa 0,0 l/m 0 min 0 min 92 W/m 29,3 km/h (5 Bft) 95,74 %
20.03.2017 08:26 10,1 C 10,6 C 9,4 C 90 % 0 lf 1007,9 hPa 0,0 l/m 0 min 0 min 87 W/m 33,5 km/h (5 Bft) 95,74 %
20.03.2017 08:28 10,1 C 10,6 C 9,4 C 90 % 0 lf 1007,9 hPa 0,0 l/m 0 min 0 min 87 W/m 29,3 km/h (5 Bft) 93,62 %
20.03.2017 08:30 10,1 C 10,6 C 9,4 C 90 % 0 lf 1007,8 hPa 0,0 l/m 0 min 0 min 85 W/m 37,7 km/h (5 Bft) 95,74 %
20.03.2017 08:32 10,1 C 10,6 C 9,4 C 90 % 0 lf 1007,8 hPa 0,0 l/m 0 min 0 min 84 W/m 23,0 km/h (4 Bft) 89,36 %
20.03.2017 08:34 10,1 C 10,6 C 9,4 C 90 % 0 lf 1007,7 hPa 0,0 l/m 0 min 0 min 77 W/m 23,0 km/h (4 Bft) 93,62 %
20.03.2017 08:36 10,1 C 10,6 C 9,4 C 91 % 0 lf 1007,8 hPa 0,0 l/m 0 min 0 min 69 W/m 33,5 km/h (5 Bft) 94,44 %
20.03.2017 08:38 10,1 C 10,6 C 9,4 C 91 % 0 lf 1007,7 hPa 0,0 l/m 0 min 0 min 65 W/m 31,4 km/h (5 Bft) 93,62 %
20.03.2017 08:40 10,1 C 10,6 C 9,4 C 91 % 0 lf 1007,8 hPa 0,0 l/m 0 min 0 min 66 W/m 27,2 km/h (4 Bft) 95,74 %
20.03.2017 08:42 10,1 C 10,6 C 9,4 C 91 % 0 lf 1007,8 hPa 0,0 l/m 0 min 0 min 66 W/m 35,6 km/h (5 Bft) 91,49 %
20.03.2017 08:44 10,1 C 10,6 C 9,4 C 91 % 0 lf 1007,8 hPa 0,0 l/m 0 min 0 min 60 W/m 25,1 km/h (4 Bft) 95,74 %
20.03.2017 08:46 10,1 C 10,6 C 9,4 C 91 % 0 lf 1007,8 hPa 0,0 l/m 0 min 0 min 57 W/m 35,6 km/h (5 Bft) 95,74 %
20.03.2017 08:48 10,1 C 10,6 C 9,4 C 91 % 0 lf 1007,8 hPa 0,0 l/m 0 min 0 min 65 W/m 31,4 km/h (5 Bft) 95,65 %
20.03.2017 08:50 10,1 C 10,6 C 9,4 C 91 % 0 lf 1007,8 hPa 0,0 l/m 0 min 0 min 59 W/m 27,2 km/h (4 Bft) 95,74 %
20.03.2017 08:52 10,1 C 10,6 C 9,4 C 91 % 0 lf 1007,8 hPa 0,0 l/m 0 min 0 min 64 W/m 31,4 km/h (5 Bft) 95,74 %
20.03.2017 08:54 10,1 C 10,6 C 9,4 C 91 % 0 lf 1007,9 hPa 0,0 l/m 0 min 0 min 67 W/m 37,7 km/h (5 Bft) 95,74 %
20.03.2017 08:56 10,1 C 10,6 C 9,4 C 91 % 0 lf 1007,8 hPa 0,0 l/m 0 min 0 min 66 W/m 27,2 km/h (4 Bft) 93,62 %
20.03.2017 08:58 10,1 C 10,6 C 9,4 C 91 % 0 lf 1007,8 hPa 0,0 l/m 0 min 0 min 61 W/m 39,7 km/h (6 Bft) 95,74 %
20.03.2017 09:00 10,1 C 10,6 C 9,4 C 91 % 0 lf 1007,8 hPa 0,0 l/m 0 min 0 min 59 W/m 31,4 km/h (5 Bft) 91,30 %
20.03.2017 09:02 10,1 C 10,6 C 9,4 C 91 % 0 lf 1007,8 hPa 0,0 l/m 0 min 0 min 51 W/m 18,8 km/h (3 Bft) 95,74 %
20.03.2017 09:04 10,1 C 10,6 C 9,4 C 91 % 0 lf 1007,7 hPa 0,0 l/m 0 min 0 min 53 W/m 23,0 km/h (4 Bft) 95,74 %
20.03.2017 09:06 10,1 C 10,6 C 9,4 C 91 % 0 lf 1007,8 hPa 0,0 l/m 0 min 0 min 54 W/m 35,6 km/h (5 Bft) 94,44 %
20.03.2017 09:08 10,1 C 10,6 C 8,9 C 91 % 0 lf 1007,8 hPa 0,0 l/m 0 min 0 min 61 W/m 25,1 km/h (4 Bft) 95,65 %
20.03.2017 09:10 10,1 C 10,6 C 8,9 C 91 % 0 lf 1007,8 hPa 0,0 l/m 0 min 0 min 59 W/m 35,6 km/h (5 Bft) 93,62 %
20.03.2017 09:12 10,1 C 10,6 C 8,9 C 91 % 0 lf 1007,8 hPa 0,0 l/m 0 min 0 min 75 W/m 29,3 km/h (5 Bft) 95,83 %
20.03.2017 09:14 10,1 C 10,6 C 8,9 C 91 % 0 lf 1007,7 hPa 0,0 l/m 0 min 0 min 63 W/m 27,2 km/h (4 Bft) 95,74 %
20.03.2017 09:16 10,0 C 10,6 C 8,9 C 91 % 0 lf 1007,7 hPa 0,0 l/m 0 min 0 min 70 W/m 29,3 km/h (5 Bft) 89,36 %
20.03.2017 09:18 10,0 C 10,6 C 8,9 C 92 % 0 lf 1007,7 hPa 0,0 l/m 0 min 0 min 77 W/m 33,5 km/h (5 Bft) 97,87 %
20.03.2017 09:20 10,0 C 10,6 C 9,4 C 92 % 0 lf 1007,6 hPa 0,0 l/m 0 min 0 min 81 W/m 18,8 km/h (3 Bft) 97,83 %
20.03.2017 09:22 10,0 C 10,6 C 9,4 C 92 % 0 lf 1007,7 hPa 0,0 l/m 0 min 0 min 78 W/m 23,0 km/h (4 Bft) 97,87 %
20.03.2017 09:24 10,0 C 10,6 C 9,4 C 92 % 0 lf 1007,7 hPa 0,0 l/m 0 min 0 min 69 W/m 27,2 km/h (4 Bft) 100,00 %
20.03.2017 09:26 10,0 C 10,6 C 9,4 C 92 % 0 lf 1007,7 hPa 0,0 l/m 0 min 0 min 74 W/m 29,3 km/h (5 Bft) 100,00 %
20.03.2017 09:28 10,0 C 10,6 C 9,4 C 92 % 0 lf 1007,7 hPa 0,0 l/m 0 min 0 min 72 W/m 20,9 km/h (4 Bft) 100,00 %
20.03.2017 09:30 10,0 C 10,6 C 9,4 C 92 % 0 lf 1007,7 hPa 0,0 l/m 0 min 0 min 77 W/m 25,1 km/h (4 Bft) 97,87 %
20.03.2017 09:32 10,0 C 10,6 C 9,4 C 92 % 0 lf 1007,7 hPa 0,0 l/m 0 min 0 min 75 W/m 18,8 km/h (3 Bft) 97,92 %
20.03.2017 09:34 10,0 C 10,6 C 9,4 C 93 % 0 lf 1007,7 hPa 0,0 l/m 0 min 0 min 79 W/m 18,8 km/h (3 Bft) 100,00 %
20.03.2017 09:36 10,0 C 10,6 C 9,4 C 93 % 1 lf 1007,7 hPa 0,0 l/m 0 min 0 min 90 W/m 31,4 km/h (5 Bft) 97,96 %
20.03.2017 09:38 10,0 C 10,0 C 8,9 C 93 % 2 lf 1007,6 hPa 0,0 l/m 0 min 0 min 91 W/m 23,0 km/h (4 Bft) 91,49 %
20.03.2017 09:40 10,0 C 10,0 C 8,9 C 93 % 2 lf 1007,6 hPa 0,0 l/m 0 min 0 min 96 W/m 27,2 km/h (4 Bft) 100,00 %
20.03.2017 09:42 10,0 C 10,0 C 8,9 C 93 % 10 lf 1007,6 hPa 0,0 l/m 0 min 0 min 90 W/m 25,1 km/h (4 Bft) 100,00 %
20.03.2017 09:44 10,0 C 10,0 C 8,9 C 93 % 14 lf 1007,6 hPa 0,0 l/m 0 min 2 min 104 W/m 27,2 km/h (4 Bft) 93,62 %
20.03.2017 09:46 9,9 C 10,0 C 8,9 C 93 % 14 lf 1007,6 hPa 0,0 l/m 0 min 0 min 104 W/m 23,0 km/h (4 Bft) 97,87 %
20.03.2017 09:48 9,9 C 10,0 C 8,9 C 93 % 14 lf 1007,7 hPa 0,0 l/m 0 min 0 min 103 W/m 27,2 km/h (4 Bft) 100,00 %
20.03.2017 09:50 9,9 C 10,0 C 8,9 C 93 % 15 lf 1007,7 hPa 0,0 l/m 0 min 0 min 133 W/m 35,6 km/h (5 Bft) 95,74 %
20.03.2017 09:52 9,9 C 10,0 C 8,9 C 93 % 15 lf 1007,6 hPa 0,0 l/m 0 min 0 min 120 W/m 35,6 km/h (5 Bft) 97,87 %
20.03.2017 09:54 9,9 C 10,0 C 8,9 C 93 % 15 lf 1007,6 hPa 0,0 l/m 0 min 0 min 133 W/m 29,3 km/h (5 Bft) 100,00 %
20.03.2017 09:56 9,9 C 10,0 C 8,9 C 94 % 15 lf 1007,6 hPa 0,0 l/m 0 min 0 min 171 W/m 25,1 km/h (4 Bft) 95,74 %
20.03.2017 09:58 9,9 C 10,6 C 9,4 C 94 % 14 lf 1007,6 hPa 0,0 l/m 0 min 2 min 181 W/m 25,1 km/h (4 Bft) 100,00 %
20.03.2017 10:00 9,9 C 10,6 C 8,9 C 94 % 9 lf 1007,6 hPa 0,0 l/m 0 min 2 min 179 W/m 39,7 km/h (6 Bft) 100,00 %
20.03.2017 10:02 9,9 C 10,6 C 9,4 C 94 % 2 lf 1007,6 hPa 0,0 l/m 0 min 2 min 178 W/m 33,5 km/h (5 Bft) 95,74 %
20.03.2017 10:04 9,9 C 11,1 C 9,4 C 94 % 0 lf 1007,6 hPa 0,0 l/m 0 min 2 min 196 W/m 29,3 km/h (5 Bft) 100,00 %
20.03.2017 10:06 10,0 C 11,7 C 9,4 C 94 % 0 lf 1007,6 hPa 0,0 l/m 0 min 2 min 193 W/m 29,3 km/h (5 Bft) 100,00 %
20.03.2017 10:08 10,0 C 11,7 C 10,0 C 94 % 0 lf 1007,6 hPa 0,0 l/m 0 min 0 min 195 W/m 29,3 km/h (5 Bft) 97,87 %
20.03.2017 10:10 10,1 C 12,2 C 10,0 C 94 % 0 lf 1007,6 hPa 0,0 l/m 0 min 0 min 221 W/m 23,0 km/h (4 Bft) 100,00 %
20.03.2017 10:12 10,1 C 12,8 C 10,6 C 94 % 0 lf 1007,6 hPa 0,0 l/m 0 min 0 min 241 W/m 27,2 km/h (4 Bft) 100,00 %
20.03.2017 10:14 10,2 C 12,2 C 11,1 C 94 % 0 lf 1007,6 hPa 0,0 l/m 2 min 0 min 261 W/m 39,7 km/h (6 Bft) 100,00 %
20.03.2017 10:16 10,2 C 12,2 C 11,1 C 94 % 0 lf 1007,6 hPa 0,0 l/m 0 min 0 min 204 W/m 25,1 km/h (4 Bft) 100,00 %
20.03.2017 10:18 10,3 C 12,2 C 11,1 C 94 % 0 lf 1007,6 hPa 0,0 l/m 0 min 0 min 162 W/m 31,4 km/h (5 Bft) 100,00 %
20.03.2017 10:20 10,3 C 12,2 C 11,1 C 94 % 0 lf 1007,6 hPa 0,0 l/m 0 min 0 min 160 W/m 33,5 km/h (5 Bft) 97,87 %
20.03.2017 10:22 10,4 C 12,2 C 11,1 C 93 % 0 lf 1007,6 hPa 0,0 l/m 0 min 0 min 159 W/m 29,3 km/h (5 Bft) 100,00 %
20.03.2017 10:24 10,4 C 12,2 C 11,1 C 93 % 0 lf 1007,7 hPa 0,0 l/m 0 min 0 min 156 W/m 25,1 km/h (4 Bft) 97,87 %
20.03.2017 10:26 10,5 C 12,2 C 11,1 C 93 % 0 lf 1007,7 hPa 0,0 l/m 0 min 0 min 139 W/m 25,1 km/h (4 Bft) 95,74 %
20.03.2017 10:28 10,5 C 11,7 C 10,6 C 93 % 0 lf 1007,7 hPa 0,0 l/m 0 min 0 min 131 W/m 39,7 km/h (6 Bft) 100,00 %
20.03.2017 10:30 10,6 C 11,7 C 10,6 C 92 % 0 lf 1007,7 hPa 0,0 l/m 0 min 0 min 125 W/m 29,3 km/h (5 Bft) 100,00 %
20.03.2017 10:32 10,6 C 11,7 C 10,6 C 92 % 0 lf 1007,7 hPa 0,0 l/m 0 min 0 min 126 W/m 29,3 km/h (5 Bft) 100,00 %
20.03.2017 10:34 10,6 C 11,7 C 10,6 C 92 % 0 lf 1007,6 hPa 0,0 l/m 0 min 0 min 126 W/m 31,4 km/h (5 Bft) 100,00 %
20.03.2017 10:36 10,6 C 11,7 C 10,6 C 92 % 0 lf 1007,6 hPa 0,0 l/m 0 min 0 min 150 W/m 20,9 km/h (4 Bft) 98,15 %
20.03.2017 10:38 10,6 C 12,2 C 11,1 C 91 % 0 lf 1007,6 hPa 0,0 l/m 0 min 0 min 223 W/m 29,3 km/h (5 Bft) 97,87 %
20.03.2017 10:40 10,7 C 12,8 C 11,1 C 91 % 0 lf 1007,8 hPa 0,0 l/m 0 min 0 min 240 W/m 39,7 km/h (6 Bft) 95,74 %
20.03.2017 10:42 10,7 C 12,8 C 11,7 C 91 % 0 lf 1007,7 hPa 0,0 l/m 0 min 0 min 255 W/m 31,4 km/h (5 Bft) 97,87 %
20.03.2017 10:44 10,8 C 13,3 C 11,7 C 91 % 0 lf 1007,7 hPa 0,0 l/m 2 min 0 min 272 W/m 33,5 km/h (5 Bft) 93,62 %
20.03.2017 10:46 10,9 C 13,3 C 11,7 C 90 % 0 lf 1007,7 hPa 0,0 l/m 2 min 0 min 295 W/m 37,7 km/h (5 Bft) 93,62 %
20.03.2017 10:48 10,9 C 13,9 C 12,2 C 90 % 0 lf 1007,7 hPa 0,0 l/m 2 min 0 min 354 W/m 31,4 km/h (5 Bft) 91,49 %
20.03.2017 10:50 11,1 C 13,9 C 12,8 C 90 % 0 lf 1007,7 hPa 0,0 l/m 2 min 0 min 346 W/m 33,5 km/h (5 Bft) 93,62 %
20.03.2017 10:52 11,2 C 13,9 C 12,8 C 90 % 0 lf 1007,7 hPa 0,0 l/m 2 min 0 min 368 W/m 35,6 km/h (5 Bft) 91,49 %
20.03.2017 10:54 11,2 C 13,9 C 12,8 C 89 % 0 lf 1007,6 hPa 0,0 l/m 2 min 0 min 352 W/m 43,9 km/h (6 Bft) 89,13 %
20.03.2017 10:56 11,3 C 13,9 C 12,8 C 89 % 0 lf 1007,7 hPa 0,0 l/m 2 min 0 min 291 W/m 35,6 km/h (5 Bft) 93,62 %
20.03.2017 10:58 11,3 C 13,3 C 12,2 C 88 % 0 lf 1007,7 hPa 0,0 l/m 0 min 0 min 245 W/m 43,9 km/h (6 Bft) 93,62 %
20.03.2017 11:00 11,4 C 12,8 C 11,7 C 88 % 0 lf 1007,8 hPa 0,0 l/m 0 min 0 min 223 W/m 43,9 km/h (6 Bft) 91,49 %
20.03.2017 11:02 11,4 C 12,8 C 11,7 C 87 % 0 lf 1007,7 hPa 0,0 l/m 0 min 0 min 240 W/m 33,5 km/h (5 Bft) 93,88 %
20.03.2017 11:04 11,4 C 12,8 C 12,2 C 87 % 0 lf 1007,7 hPa 0,0 l/m 0 min 0 min 246 W/m 35,6 km/h (5 Bft) 91,30 %
20.03.2017 11:06 11,4 C 13,3 C 12,2 C 86 % 0 lf 1007,6 hPa 0,0 l/m 0 min 0 min 232 W/m 33,5 km/h (5 Bft) 93,88 %
20.03.2017 11:08 11,4 C 13,3 C 12,2 C 86 % 1 lf 1007,6 hPa 0,0 l/m 0 min 0 min 249 W/m 18,8 km/h (3 Bft) 93,62 %
20.03.2017 11:10 11,5 C 13,9 C 12,2 C 86 % 0 lf 1007,6 hPa 0,0 l/m 0 min 0 min 271 W/m 23,0 km/h (4 Bft) 89,36 %
20.03.2017 11:12 11,6 C 13,3 C 11,7 C 86 % 0 lf 1007,6 hPa 0,0 l/m 0 min 0 min 254 W/m 35,6 km/h (5 Bft) 89,36 %
20.03.2017 11:14 11,6 C 13,3 C 12,2 C 86 % 0 lf 1007,6 hPa 0,0 l/m 0 min 0 min 257 W/m 35,6 km/h (5 Bft) 91,49 %
20.03.2017 11:16 11,6 C 12,8 C 12,2 C 86 % 0 lf 1007,6 hPa 0,0 l/m 0 min 0 min 265 W/m 33,5 km/h (5 Bft) 89,13 %
20.03.2017 11:18 11,6 C 13,3 C 12,2 C 86 % 0 lf 1007,6 hPa 0,0 l/m 0 min 0 min 268 W/m 37,7 km/h (5 Bft) 91,49 %
20.03.2017 11:20 11,7 C 13,3 C 12,2 C 85 % 0 lf 1007,5 hPa 0,0 l/m 0 min 0 min 283 W/m 29,3 km/h (5 Bft) 93,62 %
20.03.2017 11:23 11,8 C 15,0 C 13,3 C 86 % 0 lf 1007,5 hPa 0,0 l/m 2 min 0 min 379 W/m 27,2 km/h (4 Bft) 92,86 %
20.03.2017 11:24 11,8 C 15,0 C 13,3 C 86 % 0 lf 1007,5 hPa 0,0 l/m 1 min 0 min 404 W/m 39,7 km/h (6 Bft) 95,83 %
20.03.2017 11:28 11,9 C 15,0 C 13,9 C 85 % 0 lf 1007,4 hPa 0,0 l/m 2 min 0 min 423 W/m 37,7 km/h (5 Bft) 92,47 %
20.03.2017 11:29 12,0 C 15,0 C 13,3 C 84 % 0 lf 1007,4 hPa 0,0 l/m 1 min 0 min 329 W/m 37,7 km/h (5 Bft) 95,83 %
20.03.2017 11:30 12,0 C 15,0 C 13,3 C 84 % 0 lf 1007,4 hPa 0,0 l/m 1 min 0 min 360 W/m 46,0 km/h (6 Bft) 95,65 %
20.03.2017 11:31 12,1 C 15,0 C 13,3 C 84 % 0 lf 1007,3 hPa 0,0 l/m 1 min 0 min 334 W/m 46,0 km/h (6 Bft) 91,30 %
20.03.2017 11:32 12,2 C 15,0 C 13,3 C 83 % 0 lf 1007,5 hPa 0,0 l/m 1 min 0 min 316 W/m 43,9 km/h (6 Bft) 100,00 %
20.03.2017 11:33 12,2 C 14,4 C 12,8 C 83 % 0 lf 1007,2 hPa 0,0 l/m 0 min 0 min 274 W/m 31,4 km/h (5 Bft) 91,30 %
20.03.2017 11:34 12,2 C 14,4 C 12,8 C 83 % 0 lf 1007,3 hPa 0,0 l/m 0 min 0 min 278 W/m 31,4 km/h (5 Bft) 100,00 %
20.03.2017 11:35 12,2 C 15,0 C 12,8 C 82 % 0 lf 1007,2 hPa 0,0 l/m 0 min 0 min 281 W/m 25,1 km/h (4 Bft) 91,30 %
20.03.2017 11:36 12,3 C 15,6 C 12,8 C 82 % 0 lf 1007,2 hPa 0,0 l/m 0 min 0 min 281 W/m 27,2 km/h (4 Bft) 100,00 %
20.03.2017 11:37 12,3 C 16,7 C 13,3 C 82 % 0 lf 1007,1 hPa 0,0 l/m 1 min 0 min 473 W/m 25,1 km/h (4 Bft) 86,96 %
20.03.2017 11:38 12,3 C 17,2 C 13,9 C 82 % 0 lf 1007,1 hPa 0,0 l/m 1 min 0 min 519 W/m 31,4 km/h (5 Bft) 100,00 %
20.03.2017 11:39 12,4 C 16,7 C 13,9 C 82 % 0 lf 1007,3 hPa 0,0 l/m 1 min 0 min 486 W/m 37,7 km/h (5 Bft) 95,65 %
20.03.2017 11:40 12,5 C 16,7 C 13,9 C 82 % 0 lf 1007,2 hPa 0,0 l/m 1 min 0 min 380 W/m 31,4 km/h (5 Bft) 95,65 %
20.03.2017 11:41 12,6 C 16,7 C 13,9 C 82 % 0 lf 1007,2 hPa 0,0 l/m 1 min 0 min 357 W/m 31,4 km/h (5 Bft) 100,00 %
20.03.2017 11:42 12,6 C 16,1 C 13,3 C 81 % 0 lf 1007,2 hPa 0,0 l/m 1 min 0 min 318 W/m 33,5 km/h (5 Bft) 95,65 %
20.03.2017 11:43 12,6 C 16,1 C 13,9 C 81 % 0 lf 1007,2 hPa 0,0 l/m 1 min 0 min 362 W/m 31,4 km/h (5 Bft) 95,65 %
20.03.2017 11:46 12,8 C 16,7 C 13,9 C 80 % 0 lf 1007,2 hPa 0,0 l/m 2 min 0 min 355 W/m 33,5 km/h (5 Bft) 91,49 %
20.03.2017 11:48 12,8 C 16,1 C 13,9 C 80 % 0 lf 1007,1 hPa 0,0 l/m 2 min 0 min 322 W/m 35,6 km/h (5 Bft) 93,62 %
20.03.2017 11:50 12,9 C 16,1 C 13,9 C 79 % 0 lf 1007,0 hPa 0,0 l/m 2 min 0 min 344 W/m 33,5 km/h (5 Bft) 93,48 %
20.03.2017 11:52 13,0 C 15,6 C 14,4 C 79 % 0 lf 1007,1 hPa 0,0 l/m 2 min 0 min 335 W/m 37,7 km/h (5 Bft) 95,74 %
20.03.2017 11:54 13,0 C 15,0 C 13,9 C 79 % 0 lf 1007,0 hPa 0,0 l/m 0 min 0 min 302 W/m 37,7 km/h (5 Bft) 95,74 %
20.03.2017 11:56 13,1 C 16,7 C 14,4 C 79 % 0 lf 1007,0 hPa 0,0 l/m 2 min 0 min 358 W/m 25,1 km/h (4 Bft) 97,87 %
20.03.2017 11:58 13,2 C 17,2 C 14,4 C 79 % 0 lf 1007,0 hPa 0,0 l/m 2 min 0 min 493 W/m 37,7 km/h (5 Bft) 95,74 %
20.03.2017 12:00 13,3 C 17,2 C 15,0 C 78 % 0 lf 1007,0 hPa 0,0 l/m 2 min 0 min 719 W/m 37,7 km/h (5 Bft) 97,87 %
20.03.2017 12:02 13,3 C 16,1 C 14,4 C 77 % 0 lf 1007,1 hPa 0,0 l/m 2 min 0 min 453 W/m 46,0 km/h (6 Bft) 97,83 %
20.03.2017 12:04 13,3 C 16,7 C 14,4 C 77 % 0 lf 1007,0 hPa 0,0 l/m 2 min 0 min 418 W/m 37,7 km/h (5 Bft) 97,87 %
20.03.2017 12:06 13,4 C 15,6 C 13,9 C 76 % 0 lf 1006,9 hPa 0,0 l/m 2 min 0 min 359 W/m 43,9 km/h (6 Bft) 93,62 %
20.03.2017 12:08 13,4 C 15,6 C 13,9 C 76 % 0 lf 1007,0 hPa 0,0 l/m 2 min 0 min 328 W/m 39,7 km/h (6 Bft) 97,87 %
20.03.2017 12:10 13,4 C 15,6 C 14,4 C 76 % 0 lf 1007,0 hPa 0,0 l/m 2 min 0 min 315 W/m 31,4 km/h (5 Bft) 97,87 %
20.03.2017 12:12 13,4 C 15,6 C 13,9 C 76 % 0 lf 1006,9 hPa 0,0 l/m 2 min 0 min 327 W/m 37,7 km/h (5 Bft) 95,65 %
20.03.2017 12:14 13,4 C 15,6 C 13,9 C 76 % 0 lf 1006,9 hPa 0,0 l/m 2 min 0 min 350 W/m 39,7 km/h (6 Bft) 95,74 %
20.03.2017 12:16 13,4 C 15,6 C 14,4 C 76 % 0 lf 1006,9 hPa 0,0 l/m 2 min 0 min 366 W/m 29,3 km/h (5 Bft) 95,74 %
20.03.2017 12:18 13,4 C 16,7 C 15,0 C 76 % 0 lf 1006,9 hPa 0,0 l/m 2 min 0 min 363 W/m 23,0 km/h (4 Bft) 97,87 %
20.03.2017 12:20 13,5 C 16,7 C 15,0 C 76 % 0 lf 1006,8 hPa 0,0 l/m 2 min 0 min 335 W/m 33,5 km/h (5 Bft) 97,87 %
20.03.2017 12:22 13,5 C 15,6 C 14,4 C 76 % 0 lf 1006,9 hPa 0,0 l/m 2 min 0 min 312 W/m 41,8 km/h (6 Bft) 100,00 %
20.03.2017 12:24 13,5 C 15,6 C 13,9 C 75 % 0 lf 1006,9 hPa 0,0 l/m 0 min 0 min 279 W/m 52,3 km/h (7 Bft) 97,83 %
20.03.2017 12:26 13,5 C 15,0 C 13,9 C 75 % 0 lf 1006,8 hPa 0,0 l/m 0 min 0 min 260 W/m 48,1 km/h (6 Bft) 97,87 %
20.03.2017 12:28 13,4 C 15,0 C 13,9 C 74 % 0 lf 1006,8 hPa 0,0 l/m 0 min 0 min 261 W/m 46,0 km/h (6 Bft) 100,00 %
20.03.2017 12:30 13,4 C 15,0 C 13,3 C 74 % 0 lf 1006,7 hPa 0,0 l/m 0 min 0 min 299 W/m 50,2 km/h (7 Bft) 100,00 %
20.03.2017 12:32 13,4 C 15,6 C 13,9 C 74 % 0 lf 1006,8 hPa 0,0 l/m 2 min 0 min 361 W/m 46,0 km/h (6 Bft) 100,00 %
20.03.2017 12:34 13,4 C 16,1 C 14,4 C 74 % 0 lf 1006,8 hPa 0,0 l/m 2 min 0 min 346 W/m 29,3 km/h (5 Bft) 97,87 %
20.03.2017 12:36 13,5 C 16,1 C 14,4 C 75 % 0 lf 1006,7 hPa 0,0 l/m 2 min 0 min 350 W/m 33,5 km/h (5 Bft) 97,83 %
20.03.2017 12:38 13,5 C 15,6 C 13,9 C 74 % 0 lf 1006,8 hPa 0,0 l/m 2 min 0 min 337 W/m 54,4 km/h (7 Bft) 100,00 %
20.03.2017 12:40 13,6 C 16,1 C 13,9 C 74 % 0 lf 1006,7 hPa 0,0 l/m 2 min 0 min 333 W/m 33,5 km/h (5 Bft) 100,00 %
20.03.2017 12:42 13,6 C 16,1 C 14,4 C 74 % 0 lf 1006,7 hPa 0,0 l/m 2 min 0 min 337 W/m 41,8 km/h (6 Bft) 93,62 %
20.03.2017 12:44 13,6 C 16,1 C 14,4 C 74 % 0 lf 1006,6 hPa 0,0 l/m 2 min 0 min 315 W/m 35,6 km/h (5 Bft) 100,00 %
20.03.2017 12:46 13,7 C 15,6 C 14,4 C 74 % 0 lf 1006,6 hPa 0,0 l/m 2 min 0 min 321 W/m 43,9 km/h (6 Bft) 97,87 %
20.03.2017 12:48 13,7 C 15,6 C 14,4 C 73 % 0 lf 1006,6 hPa 0,0 l/m 0 min 0 min 305 W/m 37,7 km/h (5 Bft) 100,00 %
20.03.2017 12:50 13,7 C 15,6 C 14,4 C 73 % 0 lf 1006,6 hPa 0,0 l/m 2 min 0 min 372 W/m 31,4 km/h (5 Bft) 95,74 %
20.03.2017 12:52 13,7 C 16,7 C 15,0 C 72 % 0 lf 1006,4 hPa 0,0 l/m 2 min 0 min 464 W/m 37,7 km/h (5 Bft) 100,00 %
20.03.2017 12:54 13,8 C 16,7 C 15,0 C 73 % 0 lf 1006,5 hPa 0,0 l/m 2 min 0 min 454 W/m 39,7 km/h (6 Bft) 97,87 %
20.03.2017 12:56 13,8 C 17,2 C 15,0 C 73 % 0 lf 1006,4 hPa 0,0 l/m 2 min 0 min 482 W/m 39,7 km/h (6 Bft) 97,87 %
20.03.2017 12:58 13,9 C 17,2 C 15,0 C 72 % 0 lf 1006,5 hPa 0,0 l/m 2 min 0 min 504 W/m 46,0 km/h (6 Bft) 97,87 %
20.03.2017 13:00 13,9 C 17,2 C 15,0 C 72 % 0 lf 1006,5 hPa 0,0 l/m 2 min 0 min 522 W/m 46,0 km/h (6 Bft) 95,65 %
20.03.2017 13:02 14,0 C 16,7 C 14,4 C 72 % 0 lf 1006,5 hPa 0,0 l/m 2 min 0 min 341 W/m 39,7 km/h (6 Bft) 96,00 %
20.03.2017 13:04 14,1 C 16,7 C 14,4 C 72 % 0 lf 1006,5 hPa 0,0 l/m 2 min 0 min 324 W/m 35,6 km/h (5 Bft) 97,87 %
20.03.2017 13:06 14,1 C 16,7 C 14,4 C 72 % 0 lf 1006,6 hPa 0,0 l/m 2 min 0 min 334 W/m 35,6 km/h (5 Bft) 95,74 %
20.03.2017 13:08 14,1 C 16,7 C 14,4 C 72 % 0 lf 1006,5 hPa 0,0 l/m 2 min 0 min 368 W/m 39,7 km/h (6 Bft) 97,87 %
20.03.2017 13:10 14,1 C 16,7 C 15,0 C 72 % 0 lf 1006,5 hPa 0,0 l/m 2 min 0 min 414 W/m 31,4 km/h (5 Bft) 97,87 %
20.03.2017 13:12 14,2 C 16,7 C 15,0 C 72 % 0 lf 1006,5 hPa 0,0 l/m 2 min 0 min 392 W/m 33,5 km/h (5 Bft) 93,48 %
20.03.2017 13:14 14,2 C 16,7 C 15,0 C 72 % 0 lf 1006,6 hPa 0,0 l/m 2 min 0 min 369 W/m 33,5 km/h (5 Bft) 95,74 %
20.03.2017 13:16 14,2 C 17,2 C 15,6 C 72 % 0 lf 1006,4 hPa 0,0 l/m 2 min 0 min 421 W/m 23,0 km/h (4 Bft) 97,87 %
20.03.2017 13:18 14,2 C 17,2 C 15,6 C 72 % 0 lf 1006,4 hPa 0,0 l/m 2 min 0 min 351 W/m 25,1 km/h (4 Bft) 97,87 %
20.03.2017 13:20 14,2 C 16,7 C 15,6 C 71 % 0 lf 1006,5 hPa 0,0 l/m 2 min 0 min 351 W/m 33,5 km/h (5 Bft) 97,87 %
20.03.2017 13:22 14,2 C 16,7 C 15,0 C 71 % 0 lf 1006,5 hPa 0,0 l/m 2 min 0 min 379 W/m 41,8 km/h (6 Bft) 91,30 %
20.03.2017 13:24 14,2 C 16,1 C 15,0 C 71 % 0 lf 1006,4 hPa 0,0 l/m 0 min 0 min 302 W/m 29,3 km/h (5 Bft) 93,62 %
20.03.2017 13:26 14,2 C 16,1 C 15,0 C 70 % 0 lf 1006,4 hPa 0,0 l/m 0 min 0 min 245 W/m 25,1 km/h (4 Bft) 95,74 %
20.03.2017 13:28 14,2 C 16,1 C 15,0 C 70 % 0 lf 1006,3 hPa 0,0 l/m 0 min 0 min 297 W/m 33,5 km/h (5 Bft) 95,74 %
20.03.2017 13:30 14,2 C 16,7 C 15,0 C 71 % 0 lf 1006,3 hPa 0,0 l/m 2 min 0 min 374 W/m 35,6 km/h (5 Bft) 93,62 %
20.03.2017 13:32 14,3 C 16,7 C 15,6 C 71 % 0 lf 1006,3 hPa 0,0 l/m 2 min 0 min 385 W/m 25,1 km/h (4 Bft) 95,74 %
20.03.2017 13:34 14,3 C 16,7 C 15,0 C 71 % 0 lf 1006,3 hPa 0,0 l/m 2 min 0 min 368 W/m 41,8 km/h (6 Bft) 95,65 %
20.03.2017 13:36 14,3 C 16,7 C 15,0 C 71 % 0 lf 1006,2 hPa 0,0 l/m 2 min 0 min 318 W/m 41,8 km/h (6 Bft) 93,62 %
20.03.2017 13:38 14,3 C 16,7 C 15,0 C 71 % 0 lf 1006,3 hPa 0,0 l/m 2 min 0 min 321 W/m 37,7 km/h (5 Bft) 97,87 %
20.03.2017 13:40 14,4 C 16,1 C 15,0 C 70 % 0 lf 1006,3 hPa 0,0 l/m 2 min 0 min 344 W/m 35,6 km/h (5 Bft) 93,62 %
20.03.2017 13:42 14,3 C 16,1 C 15,0 C 69 % 0 lf 1006,2 hPa 0,0 l/m 2 min 0 min 353 W/m 41,8 km/h (6 Bft) 97,87 %
20.03.2017 13:44 14,3 C 16,1 C 15,0 C 69 % 0 lf 1006,1 hPa 0,0 l/m 0 min 0 min 294 W/m 29,3 km/h (5 Bft) 95,74 %
20.03.2017 13:46 14,3 C 16,1 C 15,0 C 69 % 0 lf 1006,1 hPa 0,0 l/m 0 min 0 min 266 W/m 27,2 km/h (4 Bft) 97,83 %
20.03.2017 13:48 14,3 C 15,6 C 14,4 C 69 % 0 lf 1006,1 hPa 0,0 l/m 0 min 0 min 267 W/m 37,7 km/h (5 Bft) 93,62 %
20.03.2017 13:50 14,3 C 16,1 C 14,4 C 69 % 0 lf 1006,2 hPa 0,0 l/m 0 min 0 min 262 W/m 25,1 km/h (4 Bft) 97,87 %
20.03.2017 13:52 14,2 C 16,1 C 14,4 C 70 % 0 lf 1006,1 hPa 0,0 l/m 0 min 0 min 252 W/m 27,2 km/h (4 Bft) 95,74 %
20.03.2017 13:54 14,2 C 15,6 C 14,4 C 70 % 0 lf 1006,1 hPa 0,0 l/m 0 min 0 min 252 W/m 31,4 km/h (5 Bft) 97,87 %
20.03.2017 13:56 14,2 C 15,6 C 14,4 C 70 % 0 lf 1006,1 hPa 0,0 l/m 0 min 0 min 263 W/m 39,7 km/h (6 Bft) 97,87 %
20.03.2017 13:58 14,2 C 15,6 C 14,4 C 70 % 0 lf 1006,0 hPa 0,0 l/m 0 min 0 min 270 W/m 29,3 km/h (5 Bft) 95,92 %
20.03.2017 14:00 14,2 C 15,6 C 14,4 C 70 % 0 lf 1006,1 hPa 0,0 l/m 0 min 0 min 245 W/m 31,4 km/h (5 Bft) 97,87 %
20.03.2017 14:02 14,2 C 15,6 C 14,4 C 70 % 0 lf 1006,1 hPa 0,0 l/m 0 min 0 min 214 W/m 37,7 km/h (5 Bft) 93,62 %
20.03.2017 14:04 14,2 C 15,6 C 14,4 C 70 % 0 lf 1006,0 hPa 0,0 l/m 0 min 0 min 206 W/m 33,5 km/h (5 Bft) 87,23 %
20.03.2017 14:06 14,2 C 15,6 C 14,4 C 70 % 0 lf 1006,0 hPa 0,0 l/m 0 min 0 min 209 W/m 27,2 km/h (4 Bft) 93,62 %
20.03.2017 14:08 14,2 C 15,0 C 14,4 C 70 % 0 lf 1006,0 hPa 0,0 l/m 0 min 0 min 212 W/m 35,6 km/h (5 Bft) 95,65 %
20.03.2017 14:10 14,2 C 15,6 C 14,4 C 71 % 0 lf 1006,0 hPa 0,0 l/m 0 min 0 min 219 W/m 23,0 km/h (4 Bft) 95,74 %
20.03.2017 14:12 14,2 C 15,6 C 14,4 C 71 % 0 lf 1006,0 hPa 0,0 l/m 0 min 0 min 206 W/m 39,7 km/h (6 Bft) 97,87 %
20.03.2017 14:14 14,2 C 15,6 C 13,9 C 71 % 0 lf 1006,0 hPa 0,0 l/m 0 min 0 min 205 W/m 39,7 km/h (6 Bft) 93,62 %
20.03.2017 14:16 14,2 C 15,0 C 13,9 C 71 % 0 lf 1005,9 hPa 0,0 l/m 0 min 0 min 195 W/m 33,5 km/h (5 Bft) 93,62 %
20.03.2017 14:18 14,2 C 15,0 C 13,9 C 71 % 0 lf 1006,0 hPa 0,0 l/m 0 min 0 min 186 W/m 25,1 km/h (4 Bft) 97,87 %
20.03.2017 14:20 14,2 C 15,0 C 13,9 C 71 % 0 lf 1006,0 hPa 0,0 l/m 0 min 0 min 172 W/m 43,9 km/h (6 Bft) 95,65 %
20.03.2017 14:22 14,2 C 15,0 C 13,9 C 71 % 0 lf 1006,0 hPa 0,0 l/m 0 min 0 min 178 W/m 43,9 km/h (6 Bft) 95,74 %
20.03.2017 14:24 14,1 C 15,0 C 13,9 C 71 % 0 lf 1005,9 hPa 0,0 l/m 0 min 0 min 207 W/m 41,8 km/h (6 Bft) 91,49 %
20.03.2017 14:26 14,1 C 15,0 C 13,9 C 71 % 0 lf 1006,0 hPa 0,0 l/m 0 min 0 min 200 W/m 31,4 km/h (5 Bft) 95,74 %
20.03.2017 14:28 14,1 C 15,0 C 13,9 C 72 % 0 lf 1006,0 hPa 0,0 l/m 0 min 0 min 169 W/m 23,0 km/h (4 Bft) 95,74 %
20.03.2017 14:30 14,1 C 15,0 C 13,9 C 73 % 0 lf 1005,9 hPa 0,0 l/m 0 min 0 min 157 W/m 20,9 km/h (4 Bft) 97,87 %
20.03.2017 14:32 14,1 C 15,0 C 13,9 C 73 % 0 lf 1005,8 hPa 0,0 l/m 0 min 0 min 166 W/m 27,2 km/h (4 Bft) 91,30 %
20.03.2017 14:34 14,1 C 15,0 C 13,9 C 73 % 0 lf 1005,7 hPa 0,0 l/m 0 min 0 min 182 W/m 29,3 km/h (5 Bft) 95,74 %
20.03.2017 14:36 14,1 C 15,0 C 13,9 C 72 % 0 lf 1005,7 hPa 0,0 l/m 0 min 0 min 173 W/m 35,6 km/h (5 Bft) 93,62 %
20.03.2017 14:38 14,0 C 15,0 C 13,9 C 72 % 0 lf 1005,9 hPa 0,0 l/m 0 min 0 min 150 W/m 27,2 km/h (4 Bft) 93,62 %
20.03.2017 14:40 14,0 C 15,0 C 13,9 C 72 % 0 lf 1005,6 hPa 0,0 l/m 0 min 0 min 143 W/m 27,2 km/h (4 Bft) 93,62 %
20.03.2017 14:42 14,0 C 15,0 C 13,3 C 72 % 0 lf 1005,7 hPa 0,0 l/m 0 min 0 min 143 W/m 27,2 km/h (4 Bft) 95,74 %
20.03.2017 14:44 14,0 C 15,0 C 13,9 C 72 % 0 lf 1005,7 hPa 0,0 l/m 0 min 0 min 149 W/m 20,9 km/h (4 Bft) 91,30 %
20.03.2017 14:46 14,0 C 15,0 C 13,9 C 73 % 0 lf 1005,6 hPa 0,0 l/m 0 min 0 min 152 W/m 27,2 km/h (4 Bft) 93,62 %
20.03.2017 14:48 14,0 C 15,0 C 13,9 C 73 % 0 lf 1005,6 hPa 0,0 l/m 0 min 0 min 174 W/m 35,6 km/h (5 Bft) 95,74 %
20.03.2017 14:50 14,0 C 15,0 C 13,9 C 73 % 0 lf 1005,5 hPa 0,0 l/m 0 min 0 min 196 W/m 46,0 km/h (6 Bft) 95,74 %
20.03.2017 14:52 14,0 C 15,0 C 13,9 C 72 % 0 lf 1005,5 hPa 0,0 l/m 0 min 0 min 212 W/m 37,7 km/h (5 Bft) 93,62 %
20.03.2017 14:54 14,0 C 15,0 C 13,9 C 72 % 0 lf 1005,6 hPa 0,0 l/m 0 min 0 min 206 W/m 33,5 km/h (5 Bft) 93,48 %
20.03.2017 14:56 14,0 C 15,0 C 13,9 C 72 % 0 lf 1005,6 hPa 0,0 l/m 0 min 0 min 213 W/m 37,7 km/h (5 Bft) 91,49 %
20.03.2017 14:58 14,0 C 15,6 C 13,9 C 72 % 0 lf 1005,5 hPa 0,0 l/m 0 min 0 min 252 W/m 43,9 km/h (6 Bft) 95,74 %
20.03.2017 15:00 14,0 C 16,1 C 14,4 C 72 % 0 lf 1005,6 hPa 0,0 l/m 2 min 0 min 320 W/m 43,9 km/h (6 Bft) 93,62 %
20.03.2017 15:02 14,1 C 16,7 C 15,0 C 73 % 0 lf 1005,6 hPa 0,0 l/m 2 min 0 min 414 W/m 43,9 km/h (6 Bft) 93,62 %
20.03.2017 15:04 14,2 C 16,1 C 15,0 C 73 % 0 lf 1005,5 hPa 0,0 l/m 2 min 0 min 329 W/m 35,6 km/h (5 Bft) 95,74 %
20.03.2017 15:08 14,2 C 15,6 C 14,4 C 72 % 0 lf 1005,5 hPa 0,0 l/m 0 min 0 min 227 W/m 43,9 km/h (6 Bft) 93,55 %
20.03.2017 15:10 14,2 C 15,6 C 14,4 C 72 % 0 lf 1005,7 hPa 0,0 l/m 0 min 0 min 198 W/m 46,0 km/h (6 Bft) 95,74 %
20.03.2017 15:12 14,2 C 15,0 C 13,9 C 72 % 0 lf 1005,7 hPa 0,0 l/m 0 min 0 min 220 W/m 39,7 km/h (6 Bft) 93,62 %
20.03.2017 15:14 14,2 C 15,0 C 13,9 C 72 % 0 lf 1005,6 hPa 0,0 l/m 0 min 0 min 214 W/m 37,7 km/h (5 Bft) 91,49 %
20.03.2017 15:16 14,2 C 15,0 C 13,9 C 72 % 0 lf 1005,6 hPa 0,0 l/m 0 min 0 min 241 W/m 43,9 km/h (6 Bft) 93,62 %
20.03.2017 15:18 14,1 C 15,6 C 13,9 C 72 % 0 lf 1005,7 hPa 0,0 l/m 2 min 0 min 252 W/m 29,3 km/h (5 Bft) 93,48 %
20.03.2017 15:20 14,0 C 15,0 C 13,9 C 72 % 0 lf 1005,6 hPa 0,0 l/m 0 min 0 min 237 W/m 46,0 km/h (6 Bft) 95,74 %
20.03.2017 15:22 13,9 C 15,0 C 13,9 C 73 % 0 lf 1005,6 hPa 0,0 l/m 0 min 0 min 203 W/m 41,8 km/h (6 Bft) 97,87 %
20.03.2017 15:24 13,9 C 14,4 C 13,3 C 73 % 0 lf 1005,7 hPa 0,0 l/m 0 min 0 min 161 W/m 37,7 km/h (5 Bft) 93,62 %
20.03.2017 15:26 13,8 C 14,4 C 13,3 C 73 % 0 lf 1005,6 hPa 0,0 l/m 0 min 0 min 156 W/m 35,6 km/h (5 Bft) 95,74 %
20.03.2017 15:28 13,8 C 14,4 C 13,3 C 74 % 0 lf 1005,5 hPa 0,0 l/m 0 min 0 min 139 W/m 43,9 km/h (6 Bft) 95,74 %
20.03.2017 15:30 13,7 C 14,4 C 12,8 C 74 % 0 lf 1005,6 hPa 0,0 l/m 0 min 0 min 131 W/m 43,9 km/h (6 Bft) 95,65 %
20.03.2017 15:32 13,7 C 14,4 C 12,8 C 74 % 0 lf 1005,5 hPa 0,0 l/m 0 min 0 min 115 W/m 29,3 km/h (5 Bft) 89,36 %
20.03.2017 15:34 13,7 C 14,4 C 12,8 C 74 % 0 lf 1005,5 hPa 0,0 l/m 0 min 0 min 101 W/m 29,3 km/h (5 Bft) 97,87 %
20.03.2017 15:36 13,7 C 14,4 C 12,8 C 75 % 0 lf 1005,7 hPa 0,0 l/m 0 min 0 min 90 W/m 33,5 km/h (5 Bft) 95,74 %
20.03.2017 15:38 13,6 C 13,9 C 12,8 C 75 % 0 lf 1005,5 hPa 0,0 l/m 0 min 0 min 90 W/m 31,4 km/h (5 Bft) 100,00 %
20.03.2017 15:40 13,6 C 14,4 C 12,8 C 75 % 0 lf 1005,6 hPa 0,0 l/m 0 min 0 min 90 W/m 25,1 km/h (4 Bft) 100,00 %
20.03.2017 15:42 13,6 C 13,9 C 12,8 C 75 % 0 lf 1005,5 hPa 0,0 l/m 0 min 0 min 88 W/m 35,6 km/h (5 Bft) 97,83 %
20.03.2017 15:44 13,6 C 13,9 C 12,8 C 74 % 0 lf 1005,7 hPa 0,0 l/m 0 min 0 min 88 W/m 25,1 km/h (4 Bft) 97,87 %
20.03.2017 15:46 13,5 C 13,9 C 12,8 C 75 % 0 lf 1005,6 hPa 0,0 l/m 0 min 0 min 93 W/m 52,3 km/h (7 Bft) 97,87 %
20.03.2017 15:48 13,4 C 13,9 C 12,8 C 75 % 0 lf 1005,6 hPa 0,0 l/m 0 min 0 min 98 W/m 37,7 km/h (5 Bft) 91,49 %
20.03.2017 15:50 13,4 C 13,9 C 12,8 C 75 % 0 lf 1005,7 hPa 0,0 l/m 0 min 0 min 91 W/m 41,8 km/h (6 Bft) 97,87 %
20.03.2017 15:52 13,4 C 13,9 C 12,2 C 75 % 0 lf 1005,7 hPa 0,0 l/m 0 min 0 min 83 W/m 33,5 km/h (5 Bft) 97,62 %
20.03.2017 15:54 13,3 C 13,9 C 12,2 C 75 % 0 lf 1005,6 hPa 0,0 l/m 0 min 0 min 82 W/m 35,6 km/h (5 Bft) 100,00 %
20.03.2017 15:56 13,3 C 13,3 C 12,2 C 75 % 0 lf 1005,7 hPa 0,0 l/m 0 min 0 min 78 W/m 29,3 km/h (5 Bft) 97,87 %
20.03.2017 15:58 13,2 C 13,9 C 12,2 C 75 % 0 lf 1005,6 hPa 0,0 l/m 0 min 0 min 101 W/m 23,0 km/h (4 Bft) 95,74 %
20.03.2017 16:00 13,2 C 13,9 C 12,2 C 76 % 0 lf 1005,6 hPa 0,0 l/m 0 min 0 min 96 W/m 35,6 km/h (5 Bft) 100,00 %
20.03.2017 16:02 13,2 C 13,3 C 12,2 C 75 % 0 lf 1005,6 hPa 0,0 l/m 0 min 0 min 85 W/m 35,6 km/h (5 Bft) 97,96 %
20.03.2017 16:04 13,2 C 13,3 C 12,2 C 75 % 0 lf 1005,6 hPa 0,0 l/m 0 min 0 min 75 W/m 29,3 km/h (5 Bft) 97,83 %
20.03.2017 16:06 13,1 C 13,9 C 12,2 C 76 % 0 lf 1005,5 hPa 0,0 l/m 0 min 0 min 93 W/m 37,7 km/h (5 Bft) 95,74 %
20.03.2017 16:08 13,1 C 13,9 C 12,2 C 76 % 0 lf 1005,6 hPa 0,0 l/m 0 min 0 min 127 W/m 39,7 km/h (6 Bft) 95,74 %
20.03.2017 16:10 13,1 C 13,9 C 12,2 C 76 % 0 lf 1005,5 hPa 0,0 l/m 0 min 0 min 135 W/m 46,0 km/h (6 Bft) 93,62 %
20.03.2017 16:12 13,1 C 13,9 C 12,8 C 76 % 0 lf 1005,5 hPa 0,0 l/m 0 min 0 min 129 W/m 29,3 km/h (5 Bft) 97,87 %
20.03.2017 16:14 13,1 C 13,9 C 12,2 C 76 % 0 lf 1005,4 hPa 0,0 l/m 0 min 0 min 115 W/m 46,0 km/h (6 Bft) 97,83 %
20.03.2017 16:16 13,1 C 13,9 C 12,2 C 76 % 0 lf 1005,3 hPa 0,0 l/m 0 min 0 min 112 W/m 31,4 km/h (5 Bft) 95,74 %
20.03.2017 16:18 13,1 C 13,9 C 12,2 C 76 % 0 lf 1005,4 hPa 0,0 l/m 0 min 0 min 96 W/m 33,5 km/h (5 Bft) 97,87 %
20.03.2017 16:20 13,0 C 13,9 C 12,2 C 76 % 0 lf 1005,3 hPa 0,0 l/m 0 min 0 min 97 W/m 33,5 km/h (5 Bft) 93,62 %
20.03.2017 16:22 13,1 C 13,9 C 12,2 C 76 % 0 lf 1005,4 hPa 0,0 l/m 0 min 0 min 107 W/m 33,5 km/h (5 Bft) 95,74 %
20.03.2017 16:24 13,0 C 13,3 C 12,2 C 77 % 0 lf 1005,5 hPa 0,0 l/m 0 min 0 min 113 W/m 46,0 km/h (6 Bft) 93,62 %
20.03.2017 16:26 13,0 C 13,3 C 12,2 C 76 % 0 lf 1005,4 hPa 0,0 l/m 0 min 0 min 114 W/m 46,0 km/h (6 Bft) 95,74 %
20.03.2017 16:28 12,9 C 13,9 C 12,2 C 76 % 0 lf 1005,4 hPa 0,0 l/m 0 min 0 min 113 W/m 31,4 km/h (5 Bft) 95,65 %
20.03.2017 16:30 12,9 C 13,9 C 12,2 C 77 % 0 lf 1005,3 hPa 0,0 l/m 0 min 0 min 119 W/m 25,1 km/h (4 Bft) 97,87 %
20.03.2017 16:32 12,9 C 13,9 C 12,2 C 77 % 0 lf 1005,3 hPa 0,0 l/m 0 min 0 min 93 W/m 35,6 km/h (5 Bft) 97,87 %
20.03.2017 16:34 12,9 C 13,3 C 12,2 C 77 % 0 lf 1005,4 hPa 0,0 l/m 0 min 0 min 101 W/m 33,5 km/h (5 Bft) 97,87 %
20.03.2017 16:36 12,9 C 13,9 C 12,2 C 77 % 0 lf 1005,2 hPa 0,0 l/m 0 min 0 min 144 W/m 37,7 km/h (5 Bft) 93,62 %
20.03.2017 16:38 12,9 C 13,9 C 12,2 C 76 % 0 lf 1005,2 hPa 0,0 l/m 0 min 0 min 147 W/m 37,7 km/h (5 Bft) 93,48 %
20.03.2017 16:40 12,9 C 13,9 C 12,2 C 76 % 0 lf 1005,4 hPa 0,0 l/m 0 min 0 min 131 W/m 37,7 km/h (5 Bft) 93,62 %
20.03.2017 16:42 12,9 C 13,9 C 12,2 C 77 % 0 lf 1005,3 hPa 0,0 l/m 0 min 0 min 113 W/m 46,0 km/h (6 Bft) 95,74 %
20.03.2017 16:44 12,9 C 13,9 C 12,2 C 77 % 0 lf 1005,4 hPa 0,0 l/m 0 min 0 min 102 W/m 33,5 km/h (5 Bft) 95,74 %
20.03.2017 16:46 12,9 C 13,3 C 12,2 C 77 % 0 lf 1005,4 hPa 0,0 l/m 0 min 0 min 80 W/m 37,7 km/h (5 Bft) 97,87 %
20.03.2017 16:48 12,9 C 13,3 C 12,2 C 77 % 0 lf 1005,3 hPa 0,0 l/m 0 min 0 min 78 W/m 31,4 km/h (5 Bft) 97,87 %
20.03.2017 16:50 12,9 C 13,3 C 12,2 C 77 % 0 lf 1005,3 hPa 0,0 l/m 0 min 0 min 64 W/m 27,2 km/h (4 Bft) 93,48 %
20.03.2017 16:52 12,9 C 13,3 C 11,7 C 77 % 0 lf 1005,3 hPa 0,0 l/m 0 min 0 min 54 W/m 29,3 km/h (5 Bft) 97,87 %
20.03.2017 16:54 12,9 C 13,3 C 11,7 C 77 % 0 lf 1005,4 hPa 0,0 l/m 0 min 0 min 45 W/m 41,8 km/h (6 Bft) 95,74 %
20.03.2017 16:56 12,8 C 13,3 C 11,7 C 77 % 0 lf 1005,4 hPa 0,0 l/m 0 min 0 min 44 W/m 35,6 km/h (5 Bft) 100,00 %
20.03.2017 16:58 12,8 C 13,3 C 11,7 C 77 % 0 lf 1005,4 hPa 0,0 l/m 0 min 0 min 42 W/m 35,6 km/h (5 Bft) 100,00 %
20.03.2017 17:00 12,8 C 12,8 C 11,7 C 77 % 0 lf 1005,5 hPa 0,0 l/m 0 min 0 min 44 W/m 35,6 km/h (5 Bft) 95,74 %
20.03.2017 17:02 12,8 C 12,8 C 11,7 C 77 % 0 lf 1005,6 hPa 0,0 l/m 0 min 0 min 46 W/m 39,7 km/h (6 Bft) 100,00 %
20.03.2017 17:04 12,7 C 12,8 C 11,7 C 77 % 0 lf 1005,5 hPa 0,0 l/m 0 min 0 min 43 W/m 37,7 km/h (5 Bft) 100,00 %
20.03.2017 17:06 12,7 C 12,8 C 11,7 C 77 % 0 lf 1005,5 hPa 0,0 l/m 0 min 0 min 37 W/m 41,8 km/h (6 Bft) 94,00 %
20.03.2017 17:08 12,7 C 12,8 C 11,7 C 77 % 0 lf 1005,4 hPa 0,0 l/m 0 min 0 min 33 W/m 37,7 km/h (5 Bft) 97,87 %
20.03.2017 17:10 12,6 C 12,8 C 11,7 C 77 % 0 lf 1005,5 hPa 0,0 l/m 0 min 0 min 38 W/m 23,0 km/h (4 Bft) 95,74 %
20.03.2017 17:12 12,6 C 12,8 C 11,1 C 78 % 0 lf 1005,5 hPa 0,0 l/m 0 min 0 min 38 W/m 31,4 km/h (5 Bft) 91,30 %
20.03.2017 17:14 12,6 C 12,8 C 11,1 C 78 % 0 lf 1005,4 hPa 0,0 l/m 0 min 0 min 40 W/m 20,9 km/h (4 Bft) 97,87 %
20.03.2017 17:16 12,6 C 12,8 C 11,7 C 78 % 0 lf 1005,4 hPa 0,0 l/m 0 min 0 min 48 W/m 27,2 km/h (4 Bft) 97,87 %
20.03.2017 17:18 12,5 C 12,8 C 11,1 C 78 % 0 lf 1005,4 hPa 0,0 l/m 0 min 0 min 42 W/m 39,7 km/h (6 Bft) 95,74 %
20.03.2017 17:20 12,4 C 12,8 C 11,1 C 78 % 0 lf 1005,4 hPa 0,0 l/m 0 min 0 min 41 W/m 29,3 km/h (5 Bft) 95,74 %
20.03.2017 17:22 12,4 C 12,8 C 11,1 C 78 % 0 lf 1005,4 hPa 0,0 l/m 0 min 0 min 41 W/m 41,8 km/h (6 Bft) 98,00 %
20.03.2017 17:24 12,4 C 12,8 C 11,1 C 78 % 0 lf 1005,4 hPa 0,0 l/m 0 min 0 min 47 W/m 46,0 km/h (6 Bft) 95,65 %
20.03.2017 17:26 12,4 C 12,8 C 11,1 C 78 % 0 lf 1005,5 hPa 0,0 l/m 0 min 0 min 45 W/m 41,8 km/h (6 Bft) 95,74 %
20.03.2017 17:28 12,3 C 12,8 C 11,1 C 78 % 0 lf 1005,5 hPa 0,0 l/m 0 min 0 min 45 W/m 33,5 km/h (5 Bft) 93,62 %
20.03.2017 17:30 12,3 C 12,8 C 11,1 C 78 % 0 lf 1005,5 hPa 0,0 l/m 0 min 0 min 57 W/m 27,2 km/h (4 Bft) 95,74 %
20.03.2017 17:32 12,3 C 12,8 C 11,7 C 78 % 0 lf 1005,4 hPa 0,0 l/m 0 min 0 min 65 W/m 29,3 km/h (5 Bft) 95,74 %
20.03.2017 17:34 12,3 C 12,8 C 11,7 C 78 % 0 lf 1005,4 hPa 0,0 l/m 0 min 0 min 61 W/m 18,8 km/h (3 Bft) 93,62 %
20.03.2017 17:36 12,3 C 12,8 C 11,7 C 78 % 0 lf 1005,4 hPa 0,0 l/m 0 min 0 min 61 W/m 33,5 km/h (5 Bft) 91,30 %
20.03.2017 17:38 12,3 C 12,8 C 11,1 C 78 % 0 lf 1005,4 hPa 0,0 l/m 0 min 0 min 60 W/m 31,4 km/h (5 Bft) 95,74 %
20.03.2017 17:40 12,3 C 12,8 C 11,1 C 79 % 0 lf 1005,4 hPa 0,0 l/m 0 min 0 min 48 W/m 29,3 km/h (5 Bft) 93,62 %
20.03.2017 17:42 12,3 C 12,8 C 11,1 C 78 % 0 lf 1005,4 hPa 0,0 l/m 0 min 0 min 43 W/m 35,6 km/h (5 Bft) 95,74 %
20.03.2017 17:44 12,3 C 12,8 C 11,1 C 78 % 0 lf 1005,4 hPa 0,0 l/m 0 min 0 min 37 W/m 35,6 km/h (5 Bft) 93,62 %
20.03.2017 17:46 12,2 C 12,8 C 11,1 C 78 % 0 lf 1005,4 hPa 0,0 l/m 0 min 0 min 38 W/m 35,6 km/h (5 Bft) 95,74 %
20.03.2017 17:48 12,2 C 12,8 C 11,1 C 78 % 0 lf 1005,5 hPa 0,0 l/m 0 min 0 min 37 W/m 31,4 km/h (5 Bft) 93,48 %
20.03.2017 17:50 12,2 C 12,2 C 11,1 C 78 % 0 lf 1005,4 hPa 0,0 l/m 0 min 0 min 37 W/m 46,0 km/h (6 Bft) 91,49 %
20.03.2017 17:52 12,2 C 12,2 C 11,1 C 78 % 0 lf 1005,4 hPa 0,0 l/m 0 min 0 min 34 W/m 35,6 km/h (5 Bft) 91,49 %
20.03.2017 17:54 12,2 C 12,2 C 11,1 C 79 % 0 lf 1005,6 hPa 0,0 l/m 0 min 0 min 27 W/m 31,4 km/h (5 Bft) 97,87 %
20.03.2017 17:56 12,2 C 12,2 C 11,1 C 79 % 0 lf 1005,5 hPa 0,0 l/m 0 min 0 min 23 W/m 31,4 km/h (5 Bft) 93,62 %
20.03.2017 17:58 12,2 C 12,2 C 11,1 C 79 % 0 lf 1005,5 hPa 0,0 l/m 0 min 0 min 25 W/m 33,5 km/h (5 Bft) 95,65 %
20.03.2017 18:00 12,1 C 12,2 C 11,1 C 79 % 0 lf 1005,4 hPa 0,0 l/m 0 min 0 min 28 W/m 37,7 km/h (5 Bft) 95,74 %
20.03.2017 18:02 12,1 C 12,2 C 10,6 C 79 % 0 lf 1005,5 hPa 0,0 l/m 0 min 0 min 22 W/m 27,2 km/h (4 Bft) 91,49 %
20.03.2017 18:04 12,1 C 12,2 C 10,6 C 79 % 0 lf 1005,5 hPa 0,0 l/m 0 min 0 min 21 W/m 20,9 km/h (4 Bft) 91,67 %
20.03.2017 18:08 12,1 C 12,2 C 10,6 C 79 % 0 lf 1005,5 hPa 0,0 l/m 0 min 0 min 16 W/m 27,2 km/h (4 Bft) 95,83 %
20.03.2017 18:10 12,0 C 12,2 C 10,6 C 80 % 0 lf 1005,6 hPa 0,0 l/m 0 min 0 min 13 W/m 18,8 km/h (3 Bft) 94,29 %
20.03.2017 18:12 12,0 C 12,2 C 10,6 C 80 % 0 lf 1005,6 hPa 0,0 l/m 0 min 0 min 13 W/m 18,8 km/h (3 Bft) 93,62 %
20.03.2017 18:14 11,9 C 11,7 C 10,6 C 80 % 0 lf 1005,5 hPa 0,0 l/m 0 min 0 min 14 W/m 20,9 km/h (4 Bft) 95,74 %
20.03.2017 18:16 11,9 C 11,7 C 10,0 C 80 % 0 lf 1005,6 hPa 0,0 l/m 0 min 0 min 13 W/m 29,3 km/h (5 Bft) 93,48 %
20.03.2017 18:17 11,9 C 11,7 C 10,0 C 81 % 0 lf 1005,6 hPa 0,0 l/m 0 min 0 min 12 W/m 23,0 km/h (4 Bft) 91,30 %
20.03.2017 18:20 11,8 C 11,7 C 10,0 C 81 % 0 lf 1005,7 hPa 0,0 l/m 0 min 0 min 10 W/m 31,4 km/h (5 Bft) 96,36 %
20.03.2017 18:23 11,7 C 11,7 C 10,0 C 81 % 0 lf 1005,5 hPa 0,0 l/m 0 min 0 min 9 W/m 35,6 km/h (5 Bft) 95,71 %
20.03.2017 18:24 11,7 C 11,7 C 10,0 C 81 % 0 lf 1005,5 hPa 0,0 l/m 0 min 0 min 9 W/m 25,1 km/h (4 Bft) 100,00 %
20.03.2017 18:26 11,6 C 11,7 C 10,0 C 81 % 0 lf 1005,6 hPa 0,0 l/m 0 min 0 min 9 W/m 18,8 km/h (3 Bft) 96,30 %
20.03.2017 18:28 11,6 C 11,7 C 10,0 C 82 % 0 lf 1005,6 hPa 0,0 l/m 0 min 0 min 9 W/m 25,1 km/h (4 Bft) 97,87 %
20.03.2017 18:30 11,5 C 11,7 C 10,0 C 82 % 0 lf 1005,6 hPa 0,0 l/m 0 min 0 min 9 W/m 27,2 km/h (4 Bft) 95,74 %
20.03.2017 18:32 11,5 C 11,7 C 10,0 C 82 % 0 lf 1005,6 hPa 0,0 l/m 0 min 0 min 8 W/m 23,0 km/h (4 Bft) 97,87 %
20.03.2017 18:34 11,5 C 11,7 C 10,0 C 82 % 0 lf 1005,7 hPa 0,0 l/m 0 min 0 min 7 W/m 23,0 km/h (4 Bft) 93,48 %
20.03.2017 18:36 11,4 C 11,7 C 10,0 C 82 % 0 lf 1005,7 hPa 0,0 l/m 0 min 0 min 5 W/m 29,3 km/h (5 Bft) 97,87 %
20.03.2017 18:38 11,4 C 11,7 C 10,0 C 82 % 0 lf 1005,8 hPa 0,0 l/m 0 min 0 min 5 W/m 33,5 km/h (5 Bft) 95,74 %
20.03.2017 18:40 11,4 C 11,7 C 10,0 C 81 % 0 lf 1005,7 hPa 0,0 l/m 0 min 0 min 5 W/m 27,2 km/h (4 Bft) 100,00 %
20.03.2017 18:42 11,4 C 11,7 C 10,0 C 81 % 0 lf 1005,7 hPa 0,0 l/m 0 min 0 min 5 W/m 33,5 km/h (5 Bft) 97,87 %
20.03.2017 18:44 11,4 C 11,7 C 10,0 C 81 % 0 lf 1005,7 hPa 0,0 l/m 0 min 0 min 5 W/m 29,3 km/h (5 Bft) 100,00 %
20.03.2017 18:46 11,4 C 11,7 C 10,0 C 81 % 0 lf 1005,7 hPa 0,0 l/m 0 min 0 min 5 W/m 29,3 km/h (5 Bft) 97,83 %
20.03.2017 18:48 11,5 C 11,7 C 10,0 C 81 % 0 lf 1005,8 hPa 0,0 l/m 0 min 0 min 5 W/m 23,0 km/h (4 Bft) 95,74 %
20.03.2017 18:50 11,5 C 11,7 C 10,6 C 81 % 0 lf 1005,8 hPa 0,0 l/m 0 min 0 min 5 W/m 37,7 km/h (5 Bft) 95,74 %
20.03.2017 18:52 11,5 C 11,7 C 10,6 C 81 % 0 lf 1005,7 hPa 0,0 l/m 0 min 0 min 5 W/m 35,6 km/h (5 Bft) 100,00 %
20.03.2017 18:54 11,6 C 11,7 C 10,6 C 80 % 0 lf 1005,9 hPa 0,0 l/m 0 min 0 min 5 W/m 39,7 km/h (6 Bft) 93,62 %
20.03.2017 18:56 11,6 C 11,7 C 10,6 C 80 % 0 lf 1005,8 hPa 0,0 l/m 0 min 0 min 5 W/m 37,7 km/h (5 Bft) 97,87 %
20.03.2017 18:58 11,6 C 11,7 C 10,6 C 80 % 0 lf 1005,8 hPa 0,0 l/m 0 min 0 min 5 W/m 43,9 km/h (6 Bft) 91,30 %
20.03.2017 19:00 11,6 C 11,7 C 10,6 C 80 % 0 lf 1005,8 hPa 0,0 l/m 0 min 0 min 5 W/m 41,8 km/h (6 Bft) 93,62 %
20.03.2017 19:02 11,6 C 11,7 C 10,0 C 80 % 0 lf 1005,9 hPa 0,0 l/m 0 min 0 min 5 W/m 50,2 km/h (7 Bft) 95,74 %
20.03.2017 19:04 11,6 C 11,7 C 10,0 C 81 % 0 lf 1005,8 hPa 0,0 l/m 0 min 0 min 1 W/m 35,6 km/h (5 Bft) 93,62 %
20.03.2017 19:06 11,6 C 11,7 C 10,0 C 81 % 0 lf 1005,9 hPa 0,0 l/m 0 min 0 min 0 W/m 43,9 km/h (6 Bft) 95,74 %
20.03.2017 19:08 11,5 C 11,1 C 9,4 C 81 % 0 lf 1006,0 hPa 0,0 l/m 0 min 2 min 0 W/m 43,9 km/h (6 Bft) 95,74 %
20.03.2017 19:10 11,4 C 11,1 C 9,4 C 82 % 3 lf 1006,0 hPa 0,0 l/m 0 min 0 min 0 W/m 39,7 km/h (6 Bft) 95,65 %
20.03.2017 19:12 11,4 C 11,1 C 8,9 C 83 % 5 lf 1006,1 hPa 0,0 l/m 0 min 2 min 0 W/m 37,7 km/h (5 Bft) 94,44 %
20.03.2017 19:14 11,3 C 10,6 C 8,9 C 83 % 3 lf 1006,0 hPa 0,0 l/m 0 min 0 min 0 W/m 37,7 km/h (5 Bft) 95,74 %
20.03.2017 19:16 11,2 C 10,6 C 8,9 C 84 % 2 lf 1005,9 hPa 0,0 l/m 0 min 0 min 0 W/m 39,7 km/h (6 Bft) 93,62 %
20.03.2017 19:18 11,2 C 10,6 C 8,9 C 84 % 1 lf 1006,0 hPa 0,0 l/m 0 min 0 min 0 W/m 39,7 km/h (6 Bft) 95,74 %
20.03.2017 19:20 11,1 C 10,6 C 8,9 C 85 % 0 lf 1005,9 hPa 0,0 l/m 0 min 0 min 0 W/m 27,2 km/h (4 Bft) 93,62 %
20.03.2017 19:22 11,0 C 10,6 C 8,9 C 85 % 1 lf 1005,9 hPa 0,0 l/m 0 min 0 min 0 W/m 31,4 km/h (5 Bft) 95,74 %
20.03.2017 19:24 10,9 C 10,6 C 8,9 C 85 % 2 lf 1006,1 hPa 0,0 l/m 0 min 0 min 0 W/m 29,3 km/h (5 Bft) 95,74 %
20.03.2017 19:26 10,9 C 10,0 C 8,3 C 86 % 4 lf 1005,8 hPa 0,0 l/m 0 min 2 min 0 W/m 23,0 km/h (4 Bft) 95,65 %
20.03.2017 19:28 10,8 C 10,0 C 8,3 C 86 % 3 lf 1005,9 hPa 0,0 l/m 0 min 0 min 0 W/m 27,2 km/h (4 Bft) 91,49 %
20.03.2017 19:30 10,7 C 10,0 C 8,3 C 87 % 0 lf 1005,8 hPa 0,0 l/m 0 min 0 min 0 W/m 25,1 km/h (4 Bft) 93,62 %
20.03.2017 19:32 10,7 C 10,0 C 8,3 C 87 % 0 lf 1005,8 hPa 0,0 l/m 0 min 0 min 0 W/m 33,5 km/h (5 Bft) 97,96 %
20.03.2017 19:34 10,7 C 10,6 C 8,9 C 87 % 0 lf 1005,7 hPa 0,0 l/m 0 min 0 min 0 W/m 25,1 km/h (4 Bft) 93,62 %
20.03.2017 19:36 10,6 C 10,6 C 8,9 C 87 % 0 lf 1005,7 hPa 0,0 l/m 0 min 0 min 0 W/m 33,5 km/h (5 Bft) 93,48 %
20.03.2017 19:38 10,6 C 10,6 C 8,9 C 88 % 0 lf 1005,7 hPa 0,0 l/m 0 min 0 min 0 W/m 27,2 km/h (4 Bft) 95,74 %
20.03.2017 19:40 10,5 C 10,6 C 8,9 C 88 % 0 lf 1005,7 hPa 0,0 l/m 0 min 0 min 0 W/m 25,1 km/h (4 Bft) 93,62 %
20.03.2017 19:42 10,5 C 10,6 C 8,9 C 88 % 0 lf 1005,6 hPa 0,0 l/m 0 min 0 min 0 W/m 29,3 km/h (5 Bft) 97,87 %
20.03.2017 19:44 10,5 C 10,6 C 8,9 C 88 % 0 lf 1005,6 hPa 0,0 l/m 0 min 0 min 0 W/m 27,2 km/h (4 Bft) 97,87 %
20.03.2017 19:46 10,5 C 10,6 C 9,4 C 88 % 0 lf 1005,6 hPa 0,0 l/m 0 min 0 min 0 W/m 31,4 km/h (5 Bft) 93,62 %
20.03.2017 19:48 10,4 C 10,6 C 9,4 C 88 % 0 lf 1005,6 hPa 0,0 l/m 0 min 0 min 0 W/m 35,6 km/h (5 Bft) 97,83 %
20.03.2017 19:50 10,5 C 10,6 C 9,4 C 88 % 0 lf 1005,6 hPa 0,0 l/m 0 min 0 min 0 W/m 33,5 km/h (5 Bft) 100,00 %
20.03.2017 19:52 10,5 C 10,6 C 9,4 C 88 % 0 lf 1005,6 hPa 0,0 l/m 0 min 0 min 0 W/m 20,9 km/h (4 Bft) 97,92 %
20.03.2017 19:54 10,5 C 10,6 C 9,4 C 88 % 0 lf 1005,5 hPa 0,0 l/m 0 min 0 min 0 W/m 31,4 km/h (5 Bft) 100,00 %
20.03.2017 19:56 10,5 C 10,6 C 9,4 C 88 % 0 lf 1005,5 hPa 0,0 l/m 0 min 0 min 0 W/m 20,9 km/h (4 Bft) 100,00 %
20.03.2017 19:58 10,5 C 10,6 C 9,4 C 88 % 0 lf 1005,6 hPa 0,0 l/m 0 min 0 min 0 W/m 29,3 km/h (5 Bft) 100,00 %
20.03.2017 20:00 10,5 C 10,6 C 9,4 C 87 % 0 lf 1005,4 hPa 0,0 l/m 0 min 0 min 0 W/m 23,0 km/h (4 Bft) 95,92 %
20.03.2017 20:02 10,5 C 11,1 C 9,4 C 87 % 0 lf 1005,5 hPa 0,0 l/m 0 min 0 min 0 W/m 29,3 km/h (5 Bft) 94,00 %
20.03.2017 20:04 10,6 C 11,1 C 9,4 C 87 % 0 lf 1005,4 hPa 0,0 l/m 0 min 0 min 0 W/m 39,7 km/h (6 Bft) 97,87 %
20.03.2017 20:06 10,6 C 11,1 C 9,4 C 87 % 0 lf 1005,4 hPa 0,0 l/m 0 min 0 min 0 W/m 20,9 km/h (4 Bft) 97,87 %
20.03.2017 20:08 10,6 C 11,1 C 9,4 C 87 % 0 lf 1005,4 hPa 0,0 l/m 0 min 0 min 0 W/m 23,0 km/h (4 Bft) 97,87 %
20.03.2017 20:10 10,6 C 11,1 C 9,4 C 87 % 0 lf 1005,3 hPa 0,0 l/m 0 min 0 min 0 W/m 20,9 km/h (4 Bft) 100,00 %
20.03.2017 20:12 10,6 C 11,1 C 9,4 C 87 % 0 lf 1005,4 hPa 0,0 l/m 0 min 0 min 0 W/m 31,4 km/h (5 Bft) 100,00 %
20.03.2017 20:14 10,6 C 11,1 C 9,4 C 87 % 0 lf 1005,3 hPa 0,0 l/m 0 min 0 min 0 W/m 20,9 km/h (4 Bft) 97,87 %
20.03.2017 20:16 10,6 C 11,1 C 9,4 C 87 % 0 lf 1005,4 hPa 0,0 l/m 0 min 0 min 0 W/m 23,0 km/h (4 Bft) 100,00 %
20.03.2017 20:18 10,7 C 11,1 C 9,4 C 86 % 0 lf 1005,3 hPa 0,0 l/m 0 min 0 min 0 W/m 18,8 km/h (3 Bft) 100,00 %
20.03.2017 20:20 10,7 C 11,1 C 9,4 C 86 % 0 lf 1005,2 hPa 0,0 l/m 0 min 0 min 0 W/m 31,4 km/h (5 Bft) 93,48 %
20.03.2017 20:22 10,7 C 11,1 C 9,4 C 86 % 0 lf 1005,2 hPa 0,0 l/m 0 min 0 min 0 W/m 33,5 km/h (5 Bft) 95,74 %
20.03.2017 20:24 10,7 C 11,1 C 9,4 C 86 % 0 lf 1005,1 hPa 0,0 l/m 0 min 0 min 0 W/m 25,1 km/h (4 Bft) 97,87 %
20.03.2017 20:26 10,7 C 11,1 C 9,4 C 86 % 0 lf 1005,1 hPa 0,0 l/m 0 min 0 min 0 W/m 29,3 km/h (5 Bft) 95,74 %
20.03.2017 20:28 10,7 C 11,1 C 9,4 C 86 % 0 lf 1005,1 hPa 0,0 l/m 0 min 0 min 0 W/m 18,8 km/h (3 Bft) 97,87 %
20.03.2017 20:30 10,7 C 11,1 C 9,4 C 86 % 0 lf 1005,1 hPa 0,0 l/m 0 min 0 min 0 W/m 25,1 km/h (4 Bft) 95,74 %
20.03.2017 20:32 10,7 C 11,1 C 9,4 C 86 % 0 lf 1005,0 hPa 0,0 l/m 0 min 0 min 0 W/m 20,9 km/h (4 Bft) 97,87 %
20.03.2017 20:34 10,7 C 11,1 C 9,4 C 86 % 0 lf 1005,0 hPa 0,0 l/m 0 min 0 min 0 W/m 35,6 km/h (5 Bft) 97,87 %
20.03.2017 20:36 10,7 C 11,1 C 9,4 C 86 % 0 lf 1005,1 hPa 0,0 l/m 0 min 0 min 0 W/m 25,1 km/h (4 Bft) 93,62 %
20.03.2017 20:38 10,7 C 11,1 C 9,4 C 85 % 0 lf 1005,0 hPa 0,0 l/m 0 min 0 min 0 W/m 27,2 km/h (4 Bft) 93,62 %
20.03.2017 20:40 10,8 C 11,1 C 9,4 C 85 % 0 lf 1005,1 hPa 0,0 l/m 0 min 0 min 0 W/m 23,0 km/h (4 Bft) 95,74 %
20.03.2017 20:42 10,8 C 11,1 C 9,4 C 85 % 0 lf 1005,1 hPa 0,0 l/m 0 min 0 min 0 W/m 20,9 km/h (4 Bft) 95,74 %
20.03.2017 20:44 10,8 C 11,1 C 9,4 C 85 % 0 lf 1005,0 hPa 0,0 l/m 0 min 0 min 0 W/m 18,8 km/h (3 Bft) 91,49 %
20.03.2017 20:46 10,8 C 11,1 C 9,4 C 85 % 0 lf 1004,9 hPa 0,0 l/m 0 min 0 min 0 W/m 18,8 km/h (3 Bft) 95,74 %
20.03.2017 20:48 10,8 C 11,1 C 9,4 C 85 % 0 lf 1004,9 hPa 0,0 l/m 0 min 0 min 0 W/m 25,1 km/h (4 Bft) 97,87 %
20.03.2017 20:50 10,8 C 11,1 C 9,4 C 85 % 0 lf 1004,9 hPa 0,0 l/m 0 min 0 min 0 W/m 31,4 km/h (5 Bft) 95,74 %
20.03.2017 20:52 10,8 C 11,1 C 9,4 C 85 % 0 lf 1005,0 hPa 0,0 l/m 0 min 0 min 0 W/m 18,8 km/h (3 Bft) 97,87 %
20.03.2017 20:54 10,8 C 11,1 C 9,4 C 85 % 0 lf 1005,1 hPa 0,0 l/m 0 min 0 min 0 W/m 18,8 km/h (3 Bft) 93,48 %
20.03.2017 20:56 10,8 C 11,1 C 9,4 C 85 % 0 lf 1005,1 hPa 0,0 l/m 0 min 0 min 0 W/m 25,1 km/h (4 Bft) 93,62 %
20.03.2017 20:58 10,8 C 11,1 C 9,4 C 85 % 0 lf 1005,1 hPa 0,0 l/m 0 min 0 min 0 W/m 25,1 km/h (4 Bft) 95,74 %
20.03.2017 21:00 10,8 C 11,1 C 9,4 C 85 % 0 lf 1005,2 hPa 0,0 l/m 0 min 0 min 0 W/m 29,3 km/h (5 Bft) 95,74 %
20.03.2017 21:02 10,8 C 11,1 C 9,4 C 85 % 0 lf 1005,2 hPa 0,0 l/m 0 min 0 min 0 W/m 27,2 km/h (4 Bft) 94,44 %
20.03.2017 21:04 10,8 C 11,1 C 9,4 C 85 % 0 lf 1005,2 hPa 0,0 l/m 0 min 0 min 0 W/m 14,6 km/h (3 Bft) 95,24 %
20.03.2017 21:06 10,8 C 11,1 C 9,4 C 85 % 0 lf 1005,2 hPa 0,0 l/m 0 min 0 min 0 W/m 27,2 km/h (4 Bft) 94,55 %
20.03.2017 21:08 10,8 C 11,1 C 9,4 C 85 % 0 lf 1005,2 hPa 0,0 l/m 0 min 0 min 0 W/m 23,0 km/h (4 Bft) 95,65 %
20.03.2017 21:10 10,8 C 11,1 C 9,4 C 85 % 0 lf 1005,2 hPa 0,0 l/m 0 min 0 min 0 W/m 25,1 km/h (4 Bft) 93,62 %
20.03.2017 21:12 10,7 C 11,1 C 9,4 C 85 % 0 lf 1005,2 hPa 0,0 l/m 0 min 0 min 0 W/m 33,5 km/h (5 Bft) 95,83 %
20.03.2017 21:14 10,8 C 11,1 C 9,4 C 85 % 0 lf 1005,1 hPa 0,0 l/m 0 min 0 min 0 W/m 16,7 km/h (3 Bft) 95,74 %
20.03.2017 21:16 10,8 C 11,1 C 9,4 C 85 % 0 lf 1005,1 hPa 0,0 l/m 0 min 0 min 0 W/m 23,0 km/h (4 Bft) 95,74 %
20.03.2017 21:18 10,8 C 11,1 C 9,4 C 85 % 0 lf 1005,2 hPa 0,0 l/m 0 min 0 min 0 W/m 23,0 km/h (4 Bft) 95,74 %
20.03.2017 21:20 10,8 C 11,1 C 9,4 C 85 % 0 lf 1005,1 hPa 0,0 l/m 0 min 0 min 0 W/m 25,1 km/h (4 Bft) 93,48 %
20.03.2017 21:23 10,8 C 11,1 C 9,4 C 85 % 0 lf 1005,1 hPa 0,0 l/m 0 min 0 min 0 W/m 25,1 km/h (4 Bft) 97,18 %
20.03.2017 21:24 10,8 C 11,1 C 9,4 C 85 % 0 lf 1005,1 hPa 0,0 l/m 0 min 0 min 0 W/m 20,9 km/h (4 Bft) 95,65 %
20.03.2017 21:25 10,8 C 11,1 C 9,4 C 85 % 0 lf 1005,0 hPa 0,0 l/m 0 min 0 min 0 W/m 20,9 km/h (4 Bft) 95,65 %
20.03.2017 21:26 10,8 C 11,1 C 9,4 C 85 % 0 lf 1005,0 hPa 0,0 l/m 0 min 0 min 0 W/m 12,6 km/h (3 Bft) 100,00 %
20.03.2017 21:27 10,8 C 11,1 C 9,4 C 85 % 0 lf 1005,0 hPa 0,0 l/m 0 min 0 min 0 W/m 27,2 km/h (4 Bft) 100,00 %
20.03.2017 21:28 10,8 C 11,1 C 9,4 C 85 % 0 lf 1005,0 hPa 0,0 l/m 0 min 0 min 0 W/m 27,2 km/h (4 Bft) 95,65 %
20.03.2017 21:29 10,8 C 11,1 C 9,4 C 85 % 0 lf 1005,1 hPa 0,0 l/m 0 min 0 min 0 W/m 20,9 km/h (4 Bft) 100,00 %
20.03.2017 21:30 10,8 C 11,1 C 9,4 C 85 % 0 lf 1005,1 hPa 0,0 l/m 0 min 0 min 0 W/m 27,2 km/h (4 Bft) 95,65 %
20.03.2017 21:31 10,8 C 11,1 C 9,4 C 84 % 0 lf 1005,0 hPa 0,0 l/m 0 min 0 min 0 W/m 20,9 km/h (4 Bft) 100,00 %
20.03.2017 21:32 10,8 C 11,1 C 9,4 C 84 % 0 lf 1005,0 hPa 0,0 l/m 0 min 0 min 0 W/m 14,6 km/h (3 Bft) 95,65 %
20.03.2017 21:34 10,8 C 11,1 C 9,4 C 84 % 0 lf 1005,0 hPa 0,0 l/m 0 min 0 min 0 W/m 23,0 km/h (4 Bft) 96,00 %
20.03.2017 21:36 10,8 C 11,1 C 9,4 C 84 % 0 lf 1005,0 hPa 0,0 l/m 0 min 0 min 0 W/m 27,2 km/h (4 Bft) 93,62 %
20.03.2017 21:38 10,8 C 11,1 C 9,4 C 84 % 0 lf 1005,0 hPa 0,0 l/m 0 min 0 min 0 W/m 33,5 km/h (5 Bft) 97,83 %
20.03.2017 21:40 10,8 C 11,1 C 9,4 C 84 % 0 lf 1005,0 hPa 0,0 l/m 0 min 0 min 0 W/m 20,9 km/h (4 Bft) 97,87 %
20.03.2017 21:42 10,8 C 11,1 C 9,4 C 84 % 0 lf 1004,9 hPa 0,0 l/m 0 min 0 min 0 W/m 29,3 km/h (5 Bft) 97,87 %
20.03.2017 21:44 10,9 C 11,1 C 9,4 C 83 % 0 lf 1005,1 hPa 0,0 l/m 0 min 0 min 0 W/m 29,3 km/h (5 Bft) 95,74 %
20.03.2017 21:46 10,9 C 11,1 C 9,4 C 83 % 0 lf 1005,0 hPa 0,0 l/m 0 min 0 min 0 W/m 27,2 km/h (4 Bft) 91,49 %
20.03.2017 21:48 10,9 C 11,1 C 9,4 C 83 % 0 lf 1005,0 hPa 0,0 l/m 0 min 0 min 0 W/m 27,2 km/h (4 Bft) 95,74 %
20.03.2017 21:50 10,9 C 11,1 C 9,4 C 83 % 0 lf 1005,0 hPa 0,0 l/m 0 min 0 min 0 W/m 16,7 km/h (3 Bft) 97,83 %
20.03.2017 21:52 10,9 C 11,1 C 9,4 C 83 % 0 lf 1004,9 hPa 0,0 l/m 0 min 0 min 0 W/m 23,0 km/h (4 Bft) 93,62 %
20.03.2017 21:54 10,9 C 11,1 C 9,4 C 83 % 0 lf 1004,9 hPa 0,0 l/m 0 min 0 min 0 W/m 23,0 km/h (4 Bft) 95,74 %
20.03.2017 21:56 10,9 C 11,1 C 9,4 C 83 % 0 lf 1004,8 hPa 0,0 l/m 0 min 0 min 0 W/m 16,7 km/h (3 Bft) 95,74 %
20.03.2017 21:58 10,9 C 11,1 C 9,4 C 83 % 0 lf 1004,8 hPa 0,0 l/m 0 min 0 min 0 W/m 29,3 km/h (5 Bft) 93,62 %
20.03.2017 22:00 10,9 C 11,1 C 9,4 C 83 % 0 lf 1004,8 hPa 0,0 l/m 0 min 0 min 0 W/m 27,2 km/h (4 Bft) 93,88 %
20.03.2017 22:02 10,9 C 11,1 C 9,4 C 83 % 0 lf 1004,8 hPa 0,0 l/m 0 min 0 min 0 W/m 20,9 km/h (4 Bft) 91,49 %
20.03.2017 22:04 10,9 C 11,1 C 9,4 C 82 % 0 lf 1004,8 hPa 0,0 l/m 0 min 0 min 0 W/m 33,5 km/h (5 Bft) 95,65 %
20.03.2017 22:06 11,0 C 11,1 C 9,4 C 82 % 0 lf 1004,7 hPa 0,0 l/m 0 min 0 min 0 W/m 39,7 km/h (6 Bft) 93,62 %
20.03.2017 22:08 11,0 C 11,1 C 9,4 C 82 % 0 lf 1004,8 hPa 0,0 l/m 0 min 0 min 0 W/m 20,9 km/h (4 Bft) 93,62 %
20.03.2017 22:10 11,0 C 11,1 C 9,4 C 82 % 0 lf 1004,8 hPa 0,0 l/m 0 min 0 min 0 W/m 20,9 km/h (4 Bft) 93,62 %
20.03.2017 22:12 11,1 C 11,1 C 9,4 C 82 % 0 lf 1004,9 hPa 0,0 l/m 0 min 0 min 0 W/m 20,9 km/h (4 Bft) 95,74 %
20.03.2017 22:14 11,1 C 11,1 C 9,4 C 82 % 0 lf 1004,8 hPa 0,0 l/m 0 min 0 min 0 W/m 23,0 km/h (4 Bft) 95,74 %
20.03.2017 22:16 11,1 C 11,1 C 10,0 C 82 % 0 lf 1004,8 hPa 0,0 l/m 0 min 0 min 0 W/m 23,0 km/h (4 Bft) 93,48 %
20.03.2017 22:18 11,1 C 11,7 C 10,0 C 82 % 0 lf 1004,9 hPa 0,0 l/m 0 min 0 min 0 W/m 31,4 km/h (5 Bft) 93,62 %
20.03.2017 22:20 11,1 C 11,7 C 10,0 C 81 % 0 lf 1004,9 hPa 0,0 l/m 0 min 0 min 0 W/m 29,3 km/h (5 Bft) 91,49 %
20.03.2017 22:22 11,1 C 11,7 C 10,0 C 81 % 0 lf 1004,9 hPa 0,0 l/m 0 min 0 min 0 W/m 29,3 km/h (5 Bft) 95,74 %
20.03.2017 22:24 11,1 C 11,7 C 10,0 C 81 % 0 lf 1004,9 hPa 0,0 l/m 0 min 0 min 0 W/m 20,9 km/h (4 Bft) 93,62 %
20.03.2017 22:26 11,1 C 11,7 C 10,0 C 81 % 0 lf 1004,8 hPa 0,0 l/m 0 min 0 min 0 W/m 25,1 km/h (4 Bft) 93,62 %
20.03.2017 22:28 11,1 C 11,7 C 10,0 C 81 % 0 lf 1004,9 hPa 0,0 l/m 0 min 0 min 0 W/m 25,1 km/h (4 Bft) 95,65 %
20.03.2017 22:30 11,1 C 11,7 C 10,0 C 81 % 0 lf 1004,8 hPa 0,0 l/m 0 min 0 min 0 W/m 18,8 km/h (3 Bft) 97,87 %
20.03.2017 22:32 11,2 C 11,7 C 10,0 C 81 % 0 lf 1004,8 hPa 0,0 l/m 0 min 0 min 0 W/m 27,2 km/h (4 Bft) 95,74 %
20.03.2017 22:34 11,2 C 11,7 C 10,0 C 81 % 0 lf 1004,9 hPa 0,0 l/m 0 min 0 min 0 W/m 25,1 km/h (4 Bft) 95,74 %
20.03.2017 22:36 11,2 C 11,7 C 10,0 C 81 % 0 lf 1004,8 hPa 0,0 l/m 0 min 0 min 0 W/m 31,4 km/h (5 Bft) 95,74 %
20.03.2017 22:38 11,2 C 11,7 C 10,0 C 81 % 0 lf 1004,9 hPa 0,0 l/m 0 min 0 min 0 W/m 27,2 km/h (4 Bft) 95,74 %
20.03.2017 22:40 11,2 C 11,7 C 10,0 C 81 % 0 lf 1004,9 hPa 0,0 l/m 0 min 0 min 0 W/m 23,0 km/h (4 Bft) 95,65 %
20.03.2017 22:42 11,2 C 11,7 C 10,0 C 81 % 0 lf 1004,9 hPa 0,0 l/m 0 min 0 min 0 W/m 27,2 km/h (4 Bft) 93,62 %
20.03.2017 22:44 11,2 C 11,7 C 10,0 C 80 % 0 lf 1004,9 hPa 0,0 l/m 0 min 0 min 0 W/m 29,3 km/h (5 Bft) 97,87 %
20.03.2017 22:46 11,2 C 11,7 C 10,0 C 80 % 0 lf 1005,0 hPa 0,0 l/m 0 min 0 min 0 W/m 27,2 km/h (4 Bft) 97,87 %
20.03.2017 22:48 11,2 C 11,7 C 10,0 C 80 % 0 lf 1004,9 hPa 0,0 l/m 0 min 0 min 0 W/m 23,0 km/h (4 Bft) 97,87 %
20.03.2017 22:50 11,2 C 11,7 C 10,0 C 80 % 0 lf 1004,9 hPa 0,0 l/m 0 min 0 min 0 W/m 20,9 km/h (4 Bft) 93,62 %
20.03.2017 22:52 11,2 C 11,7 C 10,0 C 80 % 0 lf 1004,9 hPa 0,0 l/m 0 min 0 min 0 W/m 31,4 km/h (5 Bft) 93,48 %
20.03.2017 22:54 11,2 C 11,7 C 10,0 C 80 % 0 lf 1004,9 hPa 0,0 l/m 0 min 0 min 0 W/m 25,1 km/h (4 Bft) 97,87 %
20.03.2017 22:56 11,2 C 11,7 C 10,0 C 80 % 0 lf 1004,9 hPa 0,0 l/m 0 min 0 min 0 W/m 35,6 km/h (5 Bft) 91,49 %
20.03.2017 22:58 11,2 C 11,7 C 10,0 C 80 % 0 lf 1004,8 hPa 0,0 l/m 0 min 0 min 0 W/m 27,2 km/h (4 Bft) 95,74 %
20.03.2017 23:00 11,2 C 11,7 C 10,0 C 80 % 0 lf 1004,8 hPa 0,0 l/m 0 min 0 min 0 W/m 20,9 km/h (4 Bft) 92,86 %
20.03.2017 23:02 11,2 C 11,7 C 10,0 C 80 % 0 lf 1004,9 hPa 0,0 l/m 0 min 0 min 0 W/m 25,1 km/h (4 Bft) 95,65 %
20.03.2017 23:04 11,2 C 11,7 C 10,0 C 80 % 0 lf 1004,8 hPa 0,0 l/m 0 min 0 min 0 W/m 33,5 km/h (5 Bft) 98,00 %
20.03.2017 23:06 11,3 C 11,7 C 10,0 C 80 % 0 lf 1004,8 hPa 0,0 l/m 0 min 0 min 0 W/m 35,6 km/h (5 Bft) 95,74 %
20.03.2017 23:08 11,3 C 11,7 C 10,0 C 80 % 0 lf 1004,8 hPa 0,0 l/m 0 min 0 min 0 W/m 33,5 km/h (5 Bft) 95,74 %
20.03.2017 23:10 11,3 C 11,7 C 10,0 C 79 % 0 lf 1004,8 hPa 0,0 l/m 0 min 0 min 0 W/m 31,4 km/h (5 Bft) 91,49 %
20.03.2017 23:12 11,3 C 11,7 C 10,0 C 79 % 0 lf 1004,8 hPa 0,0 l/m 0 min 0 min 0 W/m 37,7 km/h (5 Bft) 97,83 %
20.03.2017 23:14 11,3 C 11,7 C 10,0 C 79 % 0 lf 1004,8 hPa 0,0 l/m 0 min 0 min 0 W/m 35,6 km/h (5 Bft) 95,74 %
20.03.2017 23:16 11,3 C 11,7 C 10,0 C 79 % 0 lf 1004,8 hPa 0,0 l/m 0 min 0 min 0 W/m 23,0 km/h (4 Bft) 93,62 %
20.03.2017 23:18 11,3 C 11,7 C 10,0 C 79 % 0 lf 1004,8 hPa 0,0 l/m 0 min 0 min 0 W/m 23,0 km/h (4 Bft) 93,62 %
20.03.2017 23:20 11,3 C 11,7 C 10,0 C 79 % 0 lf 1004,8 hPa 0,0 l/m 0 min 0 min 0 W/m 29,3 km/h (5 Bft) 93,62 %
20.03.2017 23:22 11,3 C 11,7 C 10,0 C 79 % 0 lf 1004,9 hPa 0,0 l/m 0 min 0 min 0 W/m 37,7 km/h (5 Bft) 97,87 %
20.03.2017 23:24 11,3 C 11,7 C 10,0 C 79 % 0 lf 1004,7 hPa 0,0 l/m 0 min 0 min 0 W/m 27,2 km/h (4 Bft) 97,83 %
20.03.2017 23:26 11,3 C 11,7 C 10,0 C 79 % 0 lf 1004,7 hPa 0,0 l/m 0 min 0 min 0 W/m 23,0 km/h (4 Bft) 93,62 %
20.03.2017 23:28 11,4 C 11,7 C 10,0 C 79 % 0 lf 1004,7 hPa 0,0 l/m 0 min 0 min 0 W/m 20,9 km/h (4 Bft) 95,74 %
20.03.2017 23:30 11,4 C 11,7 C 10,0 C 79 % 0 lf 1004,7 hPa 0,0 l/m 0 min 0 min 0 W/m 29,3 km/h (5 Bft) 97,87 %
20.03.2017 23:32 11,4 C 11,7 C 10,0 C 79 % 0 lf 1004,7 hPa 0,0 l/m 0 min 0 min 0 W/m 31,4 km/h (5 Bft) 97,87 %
20.03.2017 23:34 11,4 C 11,7 C 10,0 C 79 % 0 lf 1004,7 hPa 0,0 l/m 0 min 0 min 0 W/m 29,3 km/h (5 Bft) 97,87 %
20.03.2017 23:36 11,4 C 11,7 C 10,0 C 79 % 0 lf 1004,7 hPa 0,0 l/m 0 min 0 min 0 W/m 23,0 km/h (4 Bft) 97,14 %
20.03.2017 23:38 11,4 C 11,7 C 10,0 C 79 % 0 lf 1004,7 hPa 0,0 l/m 0 min 0 min 0 W/m 29,3 km/h (5 Bft) 93,62 %
20.03.2017 23:40 11,4 C 11,7 C 10,0 C 79 % 0 lf 1004,7 hPa 0,0 l/m 0 min 0 min 0 W/m 25,1 km/h (4 Bft) 95,65 %
20.03.2017 23:42 11,4 C 11,7 C 10,0 C 79 % 0 lf 1004,7 hPa 0,0 l/m 0 min 2 min 0 W/m 25,1 km/h (4 Bft) 95,74 %
20.03.2017 23:44 11,3 C 11,7 C 10,0 C 79 % 0 lf 1004,7 hPa 0,0 l/m 0 min 2 min 0 W/m 27,2 km/h (4 Bft) 93,62 %
20.03.2017 23:46 11,3 C 11,7 C 10,0 C 79 % 0 lf 1004,7 hPa 0,0 l/m 0 min 0 min 0 W/m 25,1 km/h (4 Bft) 95,74 %
20.03.2017 23:48 11,3 C 11,7 C 10,0 C 79 % 0 lf 1004,7 hPa 0,0 l/m 0 min 0 min 0 W/m 29,3 km/h (5 Bft) 95,74 %
20.03.2017 23:50 11,3 C 11,7 C 10,0 C 79 % 0 lf 1004,7 hPa 0,0 l/m 0 min 0 min 0 W/m 31,4 km/h (5 Bft) 98,28 %
20.03.2017 23:52 11,3 C 11,7 C 10,0 C 79 % 0 lf 1004,7 hPa 0,0 l/m 0 min 0 min 0 W/m 25,1 km/h (4 Bft) 93,02 %
20.03.2017 23:54 11,3 C 11,7 C 9,4 C 79 % 0 lf 1004,7 hPa 0,0 l/m 0 min 2 min 0 W/m 27,2 km/h (4 Bft) 95,74 %
20.03.2017 23:56 11,3 C 11,1 C 9,4 C 80 % 5 lf 1004,8 hPa 0,0 l/m 0 min 2 min 0 W/m 16,7 km/h (3 Bft) 97,87 %
20.03.2017 23:58 11,3 C 10,6 C 8,9 C 80 % 9 lf 1004,8 hPa 0,0 l/m 0 min 2 min 0 W/m 29,3 km/h (5 Bft) 97,87 %
_ Min-Zeit 01:36 00:44 00:44 13:42 00:18 22:06 - - - - 06:08 07:50
Minimum _ 9,5 C 9,4 C 7,8 C 69 % 0 lf 1004,7 hPa - - - - 12,6 km/h (3 Bft) 86,96 %
_ Max-Zeit 13:38 11:38 13:16 01:22 07:10 00:14 00:00 10:14 07:12 12:00 12:38 00:58
Maximum _ 14,4 C 17,2 C 15,6 C 94 % 15 lf 1008,5 hPa 0,0 l/m 2 min 2 min 719 W/m 54,4 km/h
W-SW (7 Bft)
100,00 %
Durchschnitt _ 11,3 C 11,9 C 10,4 C 84 % 1 lf 1006,8 hPa #0,0 l/m #2:20 h #30 min. 154 W/m 28,9 km/h (5 Bft) 95,81 %
© 2017 W. Hausmann